Observation data for Van Horn on 11/19/2019      Previous  Date       Current Mesonet Observations  Soil Data  Daily Summary Page  Observations in Plain Language
KVA1 190600Z 23008KT 09/M04 A3004 RMK A01 T00921043  RH  038%=      5-min Rain = 0
KVA1 190601Z 23008KT 09/M04 A3004 RMK A01 T00921043  RH  038%=      5-min Rain = 0
KVA1 190602Z 23008KT 09/M04 A3004 RMK A01 T00911043  RH  038%=      5-min Rain = 0
KVA1 190603Z 22008KT 09/M04 A3004 RMK A01 T00921043  RH  038%=      5-min Rain = 0
KVA1 190604Z 23008KT 09/M04 A3004 RMK A01 T00921043  RH  038%=      5-min Rain = 0
KVA1 190605Z 23007KT 09/M04 A3004 RMK A01 T00911043  RH  038%=      5-min Rain = 0
KVA1 190606Z 22008KT 09/M04 A3004 RMK A01 T00921042  RH  038%=      5-min Rain = 0
KVA1 190607Z 23007KT 09/M04 A3004 RMK A01 T00921042  RH  038%=      5-min Rain = 0
KVA1 190608Z 23007KT 09/M04 A3004 RMK A01 T00921042  RH  038%=      5-min Rain = 0
KVA1 190609Z 23007KT 09/M04 A3004 RMK A01 T00931042  RH  038%=      5-min Rain = 0
KVA1 190610Z 23007KT 09/M04 A3004 RMK A01 T00931042  RH  038%=      5-min Rain = 0
KVA1 190611Z 23007KT 09/M04 A3004 RMK A01 T00931041  RH  038%=      5-min Rain = 0
KVA1 190612Z 22007KT 09/M04 A3004 RMK A01 T00931041  RH  038%=      5-min Rain = 0
KVA1 190613Z 22007KT 09/M04 A3004 RMK A01 T00941040  RH  038%=      5-min Rain = 0
KVA1 190614Z 23007KT 09/M04 A3004 RMK A01 T00941041  RH  038%=      5-min Rain = 0
KVA1 190615Z 23007KT 09/M04 A3004 RMK A01 T00941040  RH  039%=      5-min Rain = 0
KVA1 190616Z 22007KT 09/M04 A3004 RMK A01 T00931041  RH  039%=      5-min Rain = 0
KVA1 190617Z 22006KT 09/M04 A3004 RMK A01 T00931040  RH  039%=      5-min Rain = 0
KVA1 190618Z 22007KT 09/M04 A3004 RMK A01 T00921040  RH  039%=      5-min Rain = 0
KVA1 190619Z 22007KT 09/M04 A3004 RMK A01 T00921040  RH  039%=      5-min Rain = 0
KVA1 190620Z 22007KT 09/M04 A3004 RMK A01 T00921040  RH  039%=      5-min Rain = 0
KVA1 190621Z 22006KT 09/M04 A3004 RMK A01 T00921040  RH  039%=      5-min Rain = 0
KVA1 190622Z 22006KT 09/M04 A3005 RMK A01 T00931040  RH  039%=      5-min Rain = 0
KVA1 190623Z 22006KT 09/M04 A3005 RMK A01 T00921040  RH  039%=      5-min Rain = 0
KVA1 190624Z 22006KT 09/M04 A3005 RMK A01 T00921040  RH  039%=      5-min Rain = 0
KVA1 190625Z 22006KT 09/M04 A3005 RMK A01 T00921040  RH  039%=      5-min Rain = 0
KVA1 190626Z 22006KT 09/M04 A3005 RMK A01 T00921040  RH  039%=      5-min Rain = 0
KVA1 190627Z 22005KT 09/M04 A3005 RMK A01 T00911040  RH  039%=      5-min Rain = 0
KVA1 190628Z 23004KT 09/M04 A3005 RMK A01 T00911040  RH  039%=      5-min Rain = 0
KVA1 190629Z 23005KT 09/M04 A3005 RMK A01 T00891041  RH  040%=      5-min Rain = 0
KVA1 190630Z 24005KT 09/M04 A3005 RMK A01 T00881041  RH  040%=      5-min Rain = 0
KVA1 190631Z 23005KT 09/M04 A3005 RMK A01 T00871041  RH  040%=      5-min Rain = 0
KVA1 190632Z 23005KT 09/M04 A3005 RMK A01 T00861041  RH  041%=      5-min Rain = 0
KVA1 190633Z 23006KT 09/M04 A3005 RMK A01 T00851040  RH  041%=      5-min Rain = 0
KVA1 190634Z 23006KT 09/M04 A3004 RMK A01 T00851040  RH  041%=      5-min Rain = 0
KVA1 190635Z 23006KT 09/M04 A3004 RMK A01 T00851040  RH  041%=      5-min Rain = 0
KVA1 190636Z 23006KT 08/M04 A3004 RMK A01 T00841040  RH  041%=      5-min Rain = 0
KVA1 190637Z 23006KT 08/M04 A3004 RMK A01 T00841040  RH  041%=      5-min Rain = 0
KVA1 190638Z 23006KT 08/M04 A3004 RMK A01 T00831040  RH  042%=      5-min Rain = 0
KVA1 190639Z 23006KT 08/M04 A3004 RMK A01 T00831040  RH  042%=      5-min Rain = 0
KVA1 190640Z 24006KT 08/M04 A3004 RMK A01 T00831040  RH  042%=      5-min Rain = 0
KVA1 190641Z 24006KT 08/M04 A3004 RMK A01 T00821040  RH  042%=      5-min Rain = 0
KVA1 190642Z 24006KT 08/M04 A3004 RMK A01 T00821040  RH  042%=      5-min Rain = 0
KVA1 190643Z 24006KT 08/M04 A3004 RMK A01 T00811040  RH  042%=      5-min Rain = 0
KVA1 190644Z 24006KT 08/M04 A3004 RMK A01 T00811040  RH  042%=      5-min Rain = 0
KVA1 190645Z 24007KT 08/M04 A3004 RMK A01 T00801040  RH  042%=      5-min Rain = 0
KVA1 190646Z 23007KT 08/M04 A3004 RMK A01 T00801040  RH  042%=      5-min Rain = 0
KVA1 190647Z 23007KT 08/M04 A3004 RMK A01 T00801040  RH  043%=      5-min Rain = 0
KVA1 190648Z 23006KT 08/M04 A3004 RMK A01 T00801040  RH  043%=      5-min Rain = 0
KVA1 190649Z 23006KT 08/M04 A3004 RMK A01 T00801039  RH  043%=      5-min Rain = 0
KVA1 190650Z 23006KT 08/M04 A3004 RMK A01 T00801039  RH  042%=      5-min Rain = 0
KVA1 190651Z 24006KT 08/M04 A3004 RMK A01 T00801040  RH  042%=      5-min Rain = 0
KVA1 190652Z 24006KT 08/M04 A3004 RMK A01 T00811039  RH  042%=      5-min Rain = 0
KVA1 190653Z 24006KT 08/M04 A3004 RMK A01 T00811040  RH  042%=      5-min Rain = 0
KVA1 190654Z 25006KT 08/M04 A3004 RMK A01 T00811039  RH  042%=      5-min Rain = 0
KVA1 190655Z 25006KT 08/M04 A3004 RMK A01 T00821040  RH  042%=      5-min Rain = 0
KVA1 190656Z 25006KT 08/M04 A3004 RMK A01 T00821040  RH  042%=      5-min Rain = 0
KVA1 190657Z 25007KT 08/M04 A3004 RMK A01 T00821040  RH  042%=      5-min Rain = 0
KVA1 190658Z 24007KT 08/M04 A3004 RMK A01 T00811040  RH  042%=      5-min Rain = 0
KVA1 190659Z 24007KT 08/M04 A3005 RMK A01 T00801040  RH  042%=      5-min Rain = 0
KVA1 190700Z 24008KT 08/M04 A3005 RMK A01 T00801039  RH  043%=      5-min Rain = 0
KVA1 190701Z 24008KT 08/M04 A3005 RMK A01 T00801040  RH  043%=      5-min Rain = 0
KVA1 190702Z 23008KT 08/M04 A3005 RMK A01 T00811039  RH  042%=      5-min Rain = 0
KVA1 190703Z 23008KT 08/M04 A3005 RMK A01 T00821039  RH  042%=      5-min Rain = 0
KVA1 190704Z 23008KT 08/M04 A3005 RMK A01 T00821039  RH  042%=      5-min Rain = 0
KVA1 190705Z 23007KT 08/M04 A3005 RMK A01 T00831039  RH  042%=      5-min Rain = 0
KVA1 190706Z 23007KT 09/M04 A3005 RMK A01 T00851038  RH  042%=      5-min Rain = 0
KVA1 190707Z 23007KT 09/M04 A3005 RMK A01 T00861039  RH  041%=      5-min Rain = 0
KVA1 190708Z 24007KT 09/M04 A3005 RMK A01 T00851039  RH  041%=      5-min Rain = 0
KVA1 190709Z 23007KT 09/M04 A3005 RMK A01 T00861039  RH  041%=      5-min Rain = 0
KVA1 190710Z 23007KT 09/M04 A3005 RMK A01 T00851039  RH  041%=      5-min Rain = 0
KVA1 190711Z 23007KT 09/M04 A3004 RMK A01 T00851039  RH  041%=      5-min Rain = 0
KVA1 190712Z 24006KT 09/M04 A3004 RMK A01 T00851039  RH  041%=      5-min Rain = 0
KVA1 190713Z 24007KT 09/M04 A3005 RMK A01 T00851039  RH  041%=      5-min Rain = 0
KVA1 190714Z 23007KT 09/M04 A3005 RMK A01 T00851039  RH  041%=      5-min Rain = 0
KVA1 190715Z 23007KT 09/M04 A3005 RMK A01 T00851039  RH  041%=      5-min Rain = 0
KVA1 190716Z 23007KT 09/M04 A3005 RMK A01 T00861039  RH  041%=      5-min Rain = 0
KVA1 190717Z 23007KT 09/M04 A3005 RMK A01 T00861038  RH  041%=      5-min Rain = 0
KVA1 190718Z 23007KT 09/M04 A3005 RMK A01 T00861039  RH  041%=      5-min Rain = 0
KVA1 190719Z 23007KT 09/M04 A3005 RMK A01 T00871039  RH  041%=      5-min Rain = 0
KVA1 190720Z 23007KT 09/M04 A3005 RMK A01 T00871038  RH  041%=      5-min Rain = 0
KVA1 190721Z 22006KT 09/M04 A3005 RMK A01 T00881038  RH  041%=      5-min Rain = 0
KVA1 190722Z 22006KT 09/M04 A3005 RMK A01 T00881038  RH  041%=      5-min Rain = 0
KVA1 190723Z 22007KT 09/M04 A3005 RMK A01 T00891038  RH  041%=      5-min Rain = 0
KVA1 190724Z 22006KT 09/M04 A3005 RMK A01 T00891038  RH  041%=      5-min Rain = 0
KVA1 190725Z 22005KT 09/M04 A3005 RMK A01 T00901038  RH  040%=      5-min Rain = 0
KVA1 190726Z 22006KT 09/M04 A3004 RMK A01 T00901038  RH  040%=      5-min Rain = 0
KVA1 190727Z 22006KT 09/M04 A3004 RMK A01 T00901038  RH  040%=      5-min Rain = 0
KVA1 190728Z 23006KT 09/M04 A3004 RMK A01 T00901038  RH  040%=      5-min Rain = 0
KVA1 190729Z 23006KT 09/M04 A3004 RMK A01 T00901037  RH  041%=      5-min Rain = 0
KVA1 190730Z 23005KT 09/M04 A3004 RMK A01 T00881038  RH  041%=      5-min Rain = 0
KVA1 190731Z 23006KT 09/M04 A3004 RMK A01 T00871038  RH  041%=      5-min Rain = 0
KVA1 190732Z 23006KT 09/M04 A3004 RMK A01 T00861038  RH  041%=      5-min Rain = 0
KVA1 190733Z 23006KT 09/M04 A3004 RMK A01 T00861038  RH  041%=      5-min Rain = 0
KVA1 190734Z 24006KT 09/M04 A3004 RMK A01 T00851038  RH  042%=      5-min Rain = 0
KVA1 190735Z 24006KT 08/M04 A3004 RMK A01 T00841038  RH  042%=      5-min Rain = 0
KVA1 190736Z 24006KT 08/M04 A3004 RMK A01 T00831038  RH  042%=      5-min Rain = 0
KVA1 190737Z 24006KT 08/M04 A3004 RMK A01 T00821038  RH  042%=      5-min Rain = 0
KVA1 190738Z 24006KT 08/M04 A3004 RMK A01 T00811038  RH  043%=      5-min Rain = 0
KVA1 190739Z 24006KT 08/M04 A3004 RMK A01 T00811038  RH  043%=      5-min Rain = 0
KVA1 190740Z 23007KT 08/M04 A3004 RMK A01 T00811038  RH  043%=      5-min Rain = 0
KVA1 190741Z 24007KT 08/M04 A3004 RMK A01 T00811037  RH  043%=      5-min Rain = 0
KVA1 190742Z 24006KT 08/M04 A3004 RMK A01 T00811037  RH  043%=      5-min Rain = 0
KVA1 190743Z 25006KT 08/M04 A3004 RMK A01 T00811038  RH  043%=      5-min Rain = 0
KVA1 190744Z 24006KT 08/M04 A3004 RMK A01 T00811038  RH  043%=      5-min Rain = 0
KVA1 190745Z 23006KT 08/M04 A3004 RMK A01 T00801038  RH  043%=      5-min Rain = 0
KVA1 190746Z 23007KT 08/M04 A3004 RMK A01 T00801037  RH  043%=      5-min Rain = 0
KVA1 190747Z 24007KT 08/M04 A3004 RMK A01 T00801037  RH  043%=      5-min Rain = 0
KVA1 190748Z 24007KT 08/M04 A3004 RMK A01 T00801037  RH  043%=      5-min Rain = 0
KVA1 190749Z 24007KT 08/M04 A3004 RMK A01 T00801037  RH  043%=      5-min Rain = 0
KVA1 190750Z 24006KT 08/M04 A3004 RMK A01 T00801037  RH  043%=      5-min Rain = 0
KVA1 190751Z 24006KT 08/M04 A3004 RMK A01 T00801037  RH  043%=      5-min Rain = 0
KVA1 190752Z 24007KT 08/M04 A3004 RMK A01 T00801037  RH  043%=      5-min Rain = 0
KVA1 190753Z 24007KT 08/M04 A3004 RMK A01 T00791037  RH  044%=      5-min Rain = 0
KVA1 190754Z 23007KT 08/M04 A3004 RMK A01 T00781038  RH  044%=      5-min Rain = 0
KVA1 190755Z 23007KT 08/M04 A3004 RMK A01 T00781037  RH  044%=      5-min Rain = 0
KVA1 190756Z 23007KT 08/M04 A3004 RMK A01 T00781037  RH  044%=      5-min Rain = 0
KVA1 190757Z 24007KT 08/M04 A3004 RMK A01 T00781037  RH  044%=      5-min Rain = 0
KVA1 190758Z 24007KT 08/M04 A3004 RMK A01 T00781037  RH  044%=      5-min Rain = 0
KVA1 190759Z 24008KT 08/M04 A3004 RMK A01 T00771038  RH  044%=      5-min Rain = 0
KVA1 190800Z 24007KT 08/M04 A3004 RMK A01 T00771037  RH  044%=      5-min Rain = 0
KVA1 190801Z 23007KT 08/M04 A3004 RMK A01 T00771037  RH  044%=      5-min Rain = 0
KVA1 190802Z 24007KT 08/M04 A3004 RMK A01 T00771037  RH  044%=      5-min Rain = 0
KVA1 190803Z 24007KT 08/M04 A3004 RMK A01 T00761037  RH  045%=      5-min Rain = 0
KVA1 190804Z 24007KT 08/M04 A3004 RMK A01 T00751038  RH  045%=      5-min Rain = 0
KVA1 190805Z 23007KT 08/M04 A3004 RMK A01 T00751037  RH  045%=      5-min Rain = 0
KVA1 190806Z 23007KT 08/M04 A3004 RMK A01 T00751037  RH  045%=      5-min Rain = 0
KVA1 190807Z 24007KT 08/M04 A3004 RMK A01 T00751037  RH  045%=      5-min Rain = 0
KVA1 190808Z 24006KT 08/M04 A3004 RMK A01 T00751037  RH  045%=      5-min Rain = 0
KVA1 190809Z 24007KT 08/M04 A3004 RMK A01 T00751037  RH  045%=      5-min Rain = 0
KVA1 190810Z 24007KT 07/M04 A3004 RMK A01 T00741037  RH  045%=      5-min Rain = 0
KVA1 190811Z 25007KT 07/M04 A3004 RMK A01 T00741037  RH  045%=      5-min Rain = 0
KVA1 190812Z 25007KT 07/M04 A3004 RMK A01 T00741037  RH  045%=      5-min Rain = 0
KVA1 190813Z 24007KT 07/M04 A3004 RMK A01 T00741037  RH  045%=      5-min Rain = 0
KVA1 190814Z 24006KT 07/M04 A3004 RMK A01 T00731037  RH  045%=      5-min Rain = 0
KVA1 190815Z 25006KT 07/M04 A3004 RMK A01 T00741037  RH  045%=      5-min Rain = 0
KVA1 190816Z 24006KT 07/M04 A3004 RMK A01 T00741037  RH  045%=      5-min Rain = 0
KVA1 190817Z 24006KT 07/M04 A3004 RMK A01 T00731037  RH  045%=      5-min Rain = 0
KVA1 190818Z 24006KT 07/M04 A3004 RMK A01 T00731037  RH  046%=      5-min Rain = 0
KVA1 190819Z 24005KT 07/M04 A3004 RMK A01 T00731037  RH  046%=      5-min Rain = 0
KVA1 190820Z 24006KT 07/M04 A3004 RMK A01 T00721037  RH  046%=      5-min Rain = 0
KVA1 190821Z 24006KT 07/M04 A3004 RMK A01 T00711037  RH  046%=      5-min Rain = 0
KVA1 190822Z 24006KT 07/M04 A3004 RMK A01 T00711037  RH  046%=      5-min Rain = 0
KVA1 190823Z 24006KT 07/M04 A3004 RMK A01 T00711037  RH  046%=      5-min Rain = 0
KVA1 190824Z 24006KT 07/M04 A3004 RMK A01 T00701037  RH  046%=      5-min Rain = 0
KVA1 190825Z 24006KT 07/M04 A3004 RMK A01 T00691037  RH  047%=      5-min Rain = 0
KVA1 190826Z 24006KT 07/M04 A3004 RMK A01 T00681038  RH  047%=      5-min Rain = 0
KVA1 190827Z 24007KT 07/M04 A3004 RMK A01 T00681037  RH  047%=      5-min Rain = 0
KVA1 190828Z 24007KT 07/M04 A3004 RMK A01 T00671038  RH  047%=      5-min Rain = 0
KVA1 190829Z 24006KT 07/M04 A3004 RMK A01 T00671038  RH  047%=      5-min Rain = 0
KVA1 190830Z 24006KT 07/M04 A3004 RMK A01 T00661037  RH  047%=      5-min Rain = 0
KVA1 190831Z 24007KT 07/M04 A3004 RMK A01 T00661037  RH  048%=      5-min Rain = 0
KVA1 190832Z 24007KT 07/M04 A3004 RMK A01 T00661038  RH  048%=      5-min Rain = 0
KVA1 190833Z 25006KT 07/M04 A3004 RMK A01 T00651038  RH  048%=      5-min Rain = 0
KVA1 190834Z 24007KT 07/M04 A3004 RMK A01 T00651038  RH  048%=      5-min Rain = 0
KVA1 190835Z 24007KT 07/M04 A3004 RMK A01 T00651038  RH  048%=      5-min Rain = 0
KVA1 190836Z 24007KT 07/M04 A3004 RMK A01 T00651038  RH  048%=      5-min Rain = 0
KVA1 190837Z 24007KT 07/M04 A3004 RMK A01 T00651038  RH  048%=      5-min Rain = 0
KVA1 190838Z 25006KT 07/M04 A3004 RMK A01 T00651038  RH  048%=      5-min Rain = 0
KVA1 190839Z 24007KT 07/M04 A3004 RMK A01 T00651038  RH  048%=      5-min Rain = 0
KVA1 190840Z 24007KT 07/M04 A3004 RMK A01 T00651038  RH  048%=      5-min Rain = 0
KVA1 190841Z 23007KT 07/M04 A3004 RMK A01 T00661037  RH  048%=      5-min Rain = 0
KVA1 190842Z 23006KT 07/M04 A3004 RMK A01 T00661038  RH  048%=      5-min Rain = 0
KVA1 190843Z 23007KT 07/M04 A3004 RMK A01 T00661037  RH  048%=      5-min Rain = 0
KVA1 190844Z 24007KT 07/M04 A3004 RMK A01 T00671037  RH  047%=      5-min Rain = 0
KVA1 190845Z 24007KT 07/M04 A3004 RMK A01 T00671037  RH  047%=      5-min Rain = 0
KVA1 190846Z 23007KT 07/M04 A3004 RMK A01 T00671037  RH  047%=      5-min Rain = 0
KVA1 190847Z 23008KT 07/M04 A3004 RMK A01 T00671037  RH  047%=      5-min Rain = 0
KVA1 190848Z 23008KT 07/M04 A3004 RMK A01 T00681037  RH  047%=      5-min Rain = 0
KVA1 190849Z 23008KT 07/M04 A3004 RMK A01 T00681037  RH  047%=      5-min Rain = 0
KVA1 190850Z 23007KT 07/M04 A3004 RMK A01 T00691037  RH  047%=      5-min Rain = 0
KVA1 190851Z 23007KT 07/M04 A3004 RMK A01 T00681037  RH  047%=      5-min Rain = 0
KVA1 190852Z 23007KT 07/M04 A3004 RMK A01 T00691037  RH  047%=      5-min Rain = 0
KVA1 190853Z 23007KT 07/M04 A3004 RMK A01 T00681037  RH  047%=      5-min Rain = 0
KVA1 190854Z 23006KT 07/M04 A3004 RMK A01 T00681037  RH  047%=      5-min Rain = 0
KVA1 190855Z 23006KT 07/M04 A3004 RMK A01 T00681037  RH  047%=      5-min Rain = 0
KVA1 190856Z 23006KT 07/M04 A3004 RMK A01 T00681037  RH  047%=      5-min Rain = 0
KVA1 190857Z 24005KT 07/M04 A3004 RMK A01 T00681037  RH  047%=      5-min Rain = 0
KVA1 190858Z 24006KT 07/M04 A3004 RMK A01 T00681038  RH  047%=      5-min Rain = 0
KVA1 190859Z 23006KT 07/M04 A3004 RMK A01 T00671038  RH  047%=      5-min Rain = 0
KVA1 190900Z 23006KT 07/M04 A3004 RMK A01 T00671038  RH  047%=      5-min Rain = 0
KVA1 190901Z 24006KT 07/M04 A3004 RMK A01 T00661037  RH  047%=      5-min Rain = 0
KVA1 190902Z 24006KT 07/M04 A3004 RMK A01 T00661037  RH  048%=      5-min Rain = 0
KVA1 190903Z 24006KT 07/M04 A3004 RMK A01 T00651037  RH  048%=      5-min Rain = 0
KVA1 190904Z 25006KT 07/M04 A3004 RMK A01 T00651038  RH  048%=      5-min Rain = 0
KVA1 190905Z 24007KT 06/M04 A3004 RMK A01 T00641038  RH  048%=      5-min Rain = 0
KVA1 190906Z 24007KT 06/M04 A3004 RMK A01 T00641037  RH  048%=      5-min Rain = 0
KVA1 190907Z 23007KT 07/M04 A3003 RMK A01 T00651037  RH  048%=      5-min Rain = 0
KVA1 190908Z 24006KT 07/M04 A3003 RMK A01 T00651037  RH  048%=      5-min Rain = 0
KVA1 190909Z 24006KT 07/M04 A3003 RMK A01 T00661037  RH  048%=      5-min Rain = 0
KVA1 190910Z 23007KT 07/M04 A3003 RMK A01 T00661037  RH  048%=      5-min Rain = 0
KVA1 190911Z 23007KT 07/M04 A3003 RMK A01 T00661037  RH  048%=      5-min Rain = 0
KVA1 190912Z 23006KT 07/M04 A3003 RMK A01 T00671036  RH  048%=      5-min Rain = 0
KVA1 190913Z 24006KT 07/M04 A3003 RMK A01 T00671036  RH  047%=      5-min Rain = 0
KVA1 190914Z 24006KT 07/M04 A3003 RMK A01 T00681036  RH  047%=      5-min Rain = 0
KVA1 190915Z 23006KT 07/M04 A3004 RMK A01 T00671037  RH  047%=      5-min Rain = 0
KVA1 190916Z 24006KT 07/M04 A3004 RMK A01 T00681036  RH  047%=      5-min Rain = 0
KVA1 190917Z 24005KT 07/M04 A3004 RMK A01 T00681036  RH  047%=      5-min Rain = 0
KVA1 190918Z 23005KT 07/M04 A3004 RMK A01 T00691036  RH  047%=      5-min Rain = 0
KVA1 190919Z 24005KT 07/M04 A3004 RMK A01 T00691036  RH  047%=      5-min Rain = 0
KVA1 190920Z 24005KT 07/M04 A3004 RMK A01 T00691036  RH  047%=      5-min Rain = 0
KVA1 190921Z 24005KT 07/M04 A3004 RMK A01 T00691036  RH  047%=      5-min Rain = 0
KVA1 190922Z 24005KT 07/M04 A3004 RMK A01 T00691036  RH  047%=      5-min Rain = 0
KVA1 190923Z 23005KT 07/M04 A3004 RMK A01 T00691036  RH  047%=      5-min Rain = 0
KVA1 190924Z 23006KT 07/M04 A3004 RMK A01 T00691036  RH  047%=      5-min Rain = 0
KVA1 190925Z 22006KT 07/M04 A3004 RMK A01 T00691036  RH  047%=      5-min Rain = 0
KVA1 190926Z 22006KT 07/M04 A3004 RMK A01 T00681036  RH  047%=      5-min Rain = 0
KVA1 190927Z 23006KT 07/M04 A3004 RMK A01 T00691036  RH  047%=      5-min Rain = 0
KVA1 190928Z 23006KT 07/M04 A3004 RMK A01 T00691036  RH  047%=      5-min Rain = 0
KVA1 190929Z 23006KT 07/M04 A3004 RMK A01 T00681037  RH  047%=      5-min Rain = 0
KVA1 190930Z 23007KT 07/M04 A3004 RMK A01 T00691036  RH  047%=      5-min Rain = 0
KVA1 190931Z 22007KT 07/M04 A3004 RMK A01 T00691036  RH  047%=      5-min Rain = 0
KVA1 190932Z 22007KT 07/M04 A3004 RMK A01 T00691036  RH  047%=      5-min Rain = 0
KVA1 190933Z 22006KT 07/M04 A3004 RMK A01 T00691036  RH  047%=      5-min Rain = 0
KVA1 190934Z 22006KT 07/M04 A3004 RMK A01 T00691036  RH  047%=      5-min Rain = 0
KVA1 190935Z 22006KT 07/M04 A3004 RMK A01 T00691037  RH  047%=      5-min Rain = 0
KVA1 190936Z 22006KT 07/M04 A3004 RMK A01 T00701036  RH  047%=      5-min Rain = 0
KVA1 190937Z 21006KT 07/M04 A3004 RMK A01 T00701036  RH  047%=      5-min Rain = 0
KVA1 190938Z 22006KT 07/M04 A3004 RMK A01 T00701036  RH  047%=      5-min Rain = 0
KVA1 190939Z 21006KT 07/M04 A3004 RMK A01 T00701037  RH  047%=      5-min Rain = 0
KVA1 190940Z 21006KT 07/M04 A3004 RMK A01 T00701037  RH  047%=      5-min Rain = 0
KVA1 190941Z 21006KT 07/M04 A3004 RMK A01 T00701037  RH  047%=      5-min Rain = 0
KVA1 190942Z 21006KT 07/M04 A3004 RMK A01 T00691037  RH  047%=      5-min Rain = 0
KVA1 190943Z 21006KT 07/M04 A3004 RMK A01 T00701036  RH  047%=      5-min Rain = 0
KVA1 190944Z 21006KT 07/M04 A3004 RMK A01 T00691037  RH  047%=      5-min Rain = 0
KVA1 190945Z 21007KT 07/M04 A3004 RMK A01 T00691037  RH  047%=      5-min Rain = 0
KVA1 190946Z 21007KT 07/M04 A3004 RMK A01 T00681037  RH  047%=      5-min Rain = 0
KVA1 190947Z 21007KT 07/M04 A3004 RMK A01 T00681037  RH  047%=      5-min Rain = 0
KVA1 190948Z 21007KT 07/M04 A3004 RMK A01 T00691037  RH  047%=      5-min Rain = 0
KVA1 190949Z 22006KT 07/M04 A3004 RMK A01 T00691037  RH  047%=      5-min Rain = 0
KVA1 190950Z 22006KT 07/M04 A3004 RMK A01 T00681037  RH  047%=      5-min Rain = 0
KVA1 190951Z 22006KT 07/M04 A3004 RMK A01 T00681037  RH  047%=      5-min Rain = 0
KVA1 190952Z 23005KT 07/M04 A3004 RMK A01 T00671038  RH  047%=      5-min Rain = 0
KVA1 190953Z 23006KT 07/M04 A3004 RMK A01 T00671038  RH  047%=      5-min Rain = 0
KVA1 190954Z 23005KT 07/M04 A3004 RMK A01 T00671038  RH  047%=      5-min Rain = 0
KVA1 190955Z 23005KT 07/M04 A3004 RMK A01 T00661038  RH  048%=      5-min Rain = 0
KVA1 190956Z 23004KT 07/M04 A3004 RMK A01 T00651038  RH  048%=      5-min Rain = 0
KVA1 190957Z 23005KT 07/M04 A3004 RMK A01 T00651038  RH  048%=      5-min Rain = 0
KVA1 190958Z 22005KT 06/M04 A3004 RMK A01 T00641038  RH  048%=      5-min Rain = 0
KVA1 190959Z 22005KT 06/M04 A3004 RMK A01 T00641037  RH  048%=      5-min Rain = 0
KVA1 191000Z 22005KT 06/M04 A3004 RMK A01 T00641037  RH  048%=      5-min Rain = 0
KVA1 191001Z 22006KT 06/M04 A3004 RMK A01 T00641038  RH  048%=      5-min Rain = 0
KVA1 191002Z 22006KT 06/M04 A3004 RMK A01 T00641037  RH  048%=      5-min Rain = 0
KVA1 191003Z 22006KT 06/M04 A3004 RMK A01 T00631037  RH  048%=      5-min Rain = 0
KVA1 191004Z 22006KT 06/M04 A3004 RMK A01 T00631037  RH  049%=      5-min Rain = 0
KVA1 191005Z 23006KT 06/M04 A3004 RMK A01 T00631038  RH  049%=      5-min Rain = 0
KVA1 191006Z 22006KT 06/M04 A3004 RMK A01 T00621038  RH  049%=      5-min Rain = 0
KVA1 191007Z 22006KT 06/M04 A3004 RMK A01 T00621038  RH  049%=      5-min Rain = 0
KVA1 191008Z 22006KT 06/M04 A3004 RMK A01 T00611038  RH  049%=      5-min Rain = 0
KVA1 191009Z 22006KT 06/M04 A3004 RMK A01 T00611038  RH  049%=      5-min Rain = 0
KVA1 191010Z 22006KT 06/M04 A3003 RMK A01 T00611038  RH  049%=      5-min Rain = 0
KVA1 191011Z 22006KT 06/M04 A3003 RMK A01 T00611038  RH  049%=      5-min Rain = 0
KVA1 191012Z 22006KT 06/M04 A3003 RMK A01 T00611038  RH  049%=      5-min Rain = 0
KVA1 191013Z 22006KT 06/M04 A3003 RMK A01 T00611038  RH  049%=      5-min Rain = 0
KVA1 191014Z 21006KT 06/M04 A3003 RMK A01 T00611038  RH  049%=      5-min Rain = 0
KVA1 191015Z 21006KT 06/M04 A3003 RMK A01 T00611038  RH  049%=      5-min Rain = 0
KVA1 191016Z 21006KT 06/M04 A3003 RMK A01 T00601039  RH  049%=      5-min Rain = 0
KVA1 191017Z 21006KT 06/M04 A3003 RMK A01 T00601039  RH  049%=      5-min Rain = 0
KVA1 191018Z 21006KT 06/M04 A3003 RMK A01 T00601039  RH  049%=      5-min Rain = 0
KVA1 191019Z 21005KT 06/M04 A3003 RMK A01 T00601039  RH  049%=      5-min Rain = 0
KVA1 191020Z 22006KT 06/M04 A3003 RMK A01 T00601039  RH  049%=      5-min Rain = 0
KVA1 191021Z 22006KT 06/M04 A3003 RMK A01 T00601039  RH  049%=      5-min Rain = 0
KVA1 191022Z 22006KT 06/M04 A3003 RMK A01 T00601039  RH  049%=      5-min Rain = 0
KVA1 191023Z 22006KT 06/M04 A3003 RMK A01 T00611039  RH  049%=      5-min Rain = 0
KVA1 191024Z 22006KT 06/M04 A3003 RMK A01 T00601040  RH  049%=      5-min Rain = 0
KVA1 191025Z 21006KT 06/M04 A3003 RMK A01 T00601040  RH  049%=      5-min Rain = 0
KVA1 191026Z 21006KT 06/M04 A3003 RMK A01 T00611040  RH  048%=      5-min Rain = 0
KVA1 191027Z 21007KT 06/M04 A3003 RMK A01 T00611040  RH  048%=      5-min Rain = 0
KVA1 191028Z 21006KT 06/M04 A3003 RMK A01 T00611040  RH  048%=      5-min Rain = 0
KVA1 191029Z 22007KT 06/M04 A3003 RMK A01 T00611040  RH  048%=      5-min Rain = 0
KVA1 191030Z 22006KT 06/M04 A3003 RMK A01 T00611040  RH  048%=      5-min Rain = 0
KVA1 191031Z 22007KT 06/M04 A3003 RMK A01 T00611040  RH  048%=      5-min Rain = 0
KVA1 191032Z 22007KT 06/M04 A3003 RMK A01 T00621040  RH  048%=      5-min Rain = 0
KVA1 191033Z 22006KT 06/M04 A3003 RMK A01 T00621040  RH  048%=      5-min Rain = 0
KVA1 191034Z 23006KT 06/M04 A3003 RMK A01 T00621040  RH  048%=      5-min Rain = 0
KVA1 191035Z 23006KT 06/M04 A3003 RMK A01 T00621040  RH  048%=      5-min Rain = 0
KVA1 191036Z 22006KT 06/M04 A3003 RMK A01 T00621040  RH  048%=      5-min Rain = 0
KVA1 191037Z 22006KT 06/M04 A3003 RMK A01 T00621040  RH  048%=      5-min Rain = 0
KVA1 191038Z 21006KT 06/M04 A3003 RMK A01 T00621040  RH  048%=      5-min Rain = 0
KVA1 191039Z 21005KT 06/M04 A3003 RMK A01 T00621040  RH  048%=      5-min Rain = 0
KVA1 191040Z 21006KT 06/M04 A3003 RMK A01 T00621040  RH  048%=      5-min Rain = 0
KVA1 191041Z 21006KT 06/M04 A3003 RMK A01 T00621040  RH  048%=      5-min Rain = 0
KVA1 191042Z 20006KT 06/M04 A3003 RMK A01 T00621040  RH  048%=      5-min Rain = 0
KVA1 191043Z 21006KT 06/M04 A3003 RMK A01 T00621040  RH  048%=      5-min Rain = 0
KVA1 191044Z 21006KT 06/M04 A3003 RMK A01 T00631040  RH  048%=      5-min Rain = 0
KVA1 191045Z 21006KT 06/M04 A3003 RMK A01 T00621040  RH  048%=      5-min Rain = 0
KVA1 191046Z 21006KT 06/M04 A3003 RMK A01 T00621040  RH  048%=      5-min Rain = 0
KVA1 191047Z 20006KT 06/M04 A3003 RMK A01 T00631039  RH  048%=      5-min Rain = 0
KVA1 191048Z 20006KT 06/M04 A3003 RMK A01 T00631039  RH  048%=      5-min Rain = 0
KVA1 191049Z 20007KT 06/M04 A3003 RMK A01 T00621039  RH  048%=      5-min Rain = 0
KVA1 191050Z 20007KT 06/M04 A3003 RMK A01 T00631039  RH  048%=      5-min Rain = 0
KVA1 191051Z 20007KT 06/M04 A3003 RMK A01 T00631039  RH  048%=      5-min Rain = 0
KVA1 191052Z 20008KT 06/M04 A3003 RMK A01 T00631039  RH  048%=      5-min Rain = 0
KVA1 191053Z 20008KT 06/M04 A3003 RMK A01 T00631039  RH  048%=      5-min Rain = 0
KVA1 191054Z 20007KT 06/M04 A3003 RMK A01 T00631038  RH  048%=      5-min Rain = 0
KVA1 191055Z 21007KT 06/M04 A3003 RMK A01 T00631039  RH  048%=      5-min Rain = 0
KVA1 191056Z 21007KT 06/M04 A3003 RMK A01 T00621039  RH  048%=      5-min Rain = 0
KVA1 191057Z 21007KT 06/M04 A3003 RMK A01 T00621039  RH  048%=      5-min Rain = 0
KVA1 191058Z 21007KT 06/M04 A3003 RMK A01 T00621038  RH  048%=      5-min Rain = 0
KVA1 191059Z 21006KT 06/M04 A3003 RMK A01 T00621039  RH  048%=      5-min Rain = 0
KVA1 191100Z 21006KT 06/M04 A3003 RMK A01 T00621039  RH  048%=      5-min Rain = 0
KVA1 191101Z 21006KT 06/M04 A3003 RMK A01 T00621039  RH  049%=      5-min Rain = 0
KVA1 191102Z 21007KT 06/M04 A3003 RMK A01 T00611039  RH  049%=      5-min Rain = 0
KVA1 191103Z 22007KT 06/M04 A3003 RMK A01 T00611039  RH  049%=      5-min Rain = 0
KVA1 191104Z 22007KT 06/M04 A3003 RMK A01 T00611039  RH  049%=      5-min Rain = 0
KVA1 191105Z 22007KT 06/M04 A3003 RMK A01 T00611039  RH  049%=      5-min Rain = 0
KVA1 191106Z 22007KT 06/M04 A3003 RMK A01 T00611039  RH  049%=      5-min Rain = 0
KVA1 191107Z 22007KT 06/M04 A3003 RMK A01 T00611039  RH  049%=      5-min Rain = 0
KVA1 191108Z 22007KT 06/M04 A3003 RMK A01 T00611039  RH  049%=      5-min Rain = 0
KVA1 191109Z 23008KT 06/M04 A3003 RMK A01 T00611039  RH  049%=      5-min Rain = 0
KVA1 191110Z 23007KT 06/M04 A3003 RMK A01 T00611039  RH  049%=      5-min Rain = 0
KVA1 191111Z 22007KT 06/M04 A3003 RMK A01 T00601039  RH  049%=      5-min Rain = 0
KVA1 191112Z 22007KT 06/M04 A3003 RMK A01 T00601039  RH  049%=      5-min Rain = 0
KVA1 191113Z 22007KT 06/M04 A3003 RMK A01 T00591039  RH  049%=      5-min Rain = 0
KVA1 191114Z 22007KT 06/M04 A3003 RMK A01 T00581039  RH  050%=      5-min Rain = 0
KVA1 191115Z 22007KT 06/M04 A3003 RMK A01 T00581039  RH  050%=      5-min Rain = 0
KVA1 191116Z 21007KT 06/M04 A3003 RMK A01 T00581039  RH  050%=      5-min Rain = 0
KVA1 191117Z 22008KT 06/M04 A3003 RMK A01 T00581039  RH  050%=      5-min Rain = 0
KVA1 191118Z 22008KT 06/M04 A3003 RMK A01 T00591038  RH  050%=      5-min Rain = 0
KVA1 191119Z 22008KT 06/M04 A3003 RMK A01 T00591038  RH  049%=      5-min Rain = 0
KVA1 191120Z 22008KT 06/M04 A3003 RMK A01 T00601038  RH  049%=      5-min Rain = 0
KVA1 191121Z 22008KT 06/M04 A3003 RMK A01 T00601039  RH  049%=      5-min Rain = 0
KVA1 191122Z 22008KT 06/M04 A3003 RMK A01 T00611039  RH  049%=      5-min Rain = 0
KVA1 191123Z 22008KT 06/M04 A3003 RMK A01 T00611039  RH  049%=      5-min Rain = 0
KVA1 191124Z 22008KT 06/M04 A3003 RMK A01 T00611039  RH  049%=      5-min Rain = 0
KVA1 191125Z 22008KT 06/M04 A3003 RMK A01 T00611039  RH  049%=      5-min Rain = 0
KVA1 191126Z 22008KT 06/M04 A3003 RMK A01 T00611039  RH  049%=      5-min Rain = 0
KVA1 191127Z 22008KT 06/M04 A3003 RMK A01 T00611039  RH  049%=      5-min Rain = 0
KVA1 191128Z 22008KT 06/M04 A3003 RMK A01 T00611039  RH  049%=      5-min Rain = 0
KVA1 191129Z 22007KT 06/M04 A3003 RMK A01 T00601039  RH  049%=      5-min Rain = 0
KVA1 191130Z 22007KT 06/M04 A3003 RMK A01 T00601039  RH  049%=      5-min Rain = 0
KVA1 191131Z 22007KT 06/M04 A3003 RMK A01 T00601038  RH  049%=      5-min Rain = 0
KVA1 191132Z 21008KT 06/M04 A3002 RMK A01 T00591039  RH  049%=      5-min Rain = 0
KVA1 191133Z 22007KT 06/M04 A3002 RMK A01 T00591038  RH  049%=      5-min Rain = 0
KVA1 191134Z 21007KT 06/M04 A3003 RMK A01 T00591038  RH  049%=      5-min Rain = 0
KVA1 191135Z 21007KT 06/M04 A3003 RMK A01 T00591039  RH  049%=      5-min Rain = 0
KVA1 191136Z 21007KT 06/M04 A3003 RMK A01 T00591039  RH  050%=      5-min Rain = 0
KVA1 191137Z 21007KT 06/M04 A3003 RMK A01 T00581039  RH  050%=      5-min Rain = 0
KVA1 191138Z 21006KT 06/M04 A3003 RMK A01 T00581039  RH  050%=      5-min Rain = 0
KVA1 191139Z 21007KT 06/M04 A3003 RMK A01 T00571039  RH  050%=      5-min Rain = 0
KVA1 191140Z 21007KT 06/M04 A3003 RMK A01 T00561039  RH  050%=      5-min Rain = 0
KVA1 191141Z 21007KT 06/M04 A3003 RMK A01 T00561039  RH  051%=      5-min Rain = 0
KVA1 191142Z 21007KT 06/M04 A3003 RMK A01 T00551039  RH  051%=      5-min Rain = 0
KVA1 191143Z 21006KT 05/M04 A3003 RMK A01 T00541039  RH  051%=      5-min Rain = 0
KVA1 191144Z 22006KT 05/M04 A3003 RMK A01 T00541039  RH  051%=      5-min Rain = 0
KVA1 191145Z 22006KT 05/M04 A3003 RMK A01 T00541039  RH  051%=      5-min Rain = 0
KVA1 191146Z 22006KT 05/M04 A3003 RMK A01 T00531039  RH  051%=      5-min Rain = 0
KVA1 191147Z 22007KT 05/M04 A3003 RMK A01 T00531039  RH  051%=      5-min Rain = 0
KVA1 191148Z 22007KT 05/M04 A3003 RMK A01 T00531039  RH  051%=      5-min Rain = 0
KVA1 191149Z 22007KT 05/M04 A3003 RMK A01 T00521039  RH  052%=      5-min Rain = 0
KVA1 191150Z 22007KT 05/M04 A3003 RMK A01 T00521040  RH  052%=      5-min Rain = 0
KVA1 191151Z 22007KT 05/M04 A3003 RMK A01 T00511040  RH  052%=      5-min Rain = 0
KVA1 191152Z 22007KT 05/M04 A3003 RMK A01 T00511039  RH  052%=      5-min Rain = 0
KVA1 191153Z 22007KT 05/M04 A3003 RMK A01 T00511039  RH  052%=      5-min Rain = 0
KVA1 191154Z 21007KT 05/M04 A3003 RMK A01 T00511039  RH  052%=      5-min Rain = 0
KVA1 191155Z 22006KT 05/M04 A3003 RMK A01 T00511039  RH  052%=      5-min Rain = 0
KVA1 191156Z 22007KT 05/M04 A3003 RMK A01 T00511039  RH  052%=      5-min Rain = 0
KVA1 191157Z 21006KT 05/M04 A3003 RMK A01 T00511039  RH  052%=      5-min Rain = 0
KVA1 191158Z 21007KT 05/M04 A3003 RMK A01 T00511039  RH  052%=      5-min Rain = 0
KVA1 191159Z 21007KT 05/M04 A3003 RMK A01 T00511039  RH  052%=      5-min Rain = 0
KVA1 191200Z 21007KT 05/M04 A3003 RMK A01 T00501040  RH  052%=      5-min Rain = 0
KVA1 191201Z 21007KT 05/M04 A3003 RMK A01 T00511040  RH  052%=      5-min Rain = 0
KVA1 191202Z 21007KT 05/M04 A3003 RMK A01 T00511039  RH  052%=      5-min Rain = 0
KVA1 191203Z 21007KT 05/M04 A3003 RMK A01 T00511040  RH  052%=      5-min Rain = 0
KVA1 191204Z 21007KT 05/M04 A3002 RMK A01 T00511039  RH  052%=      5-min Rain = 0
KVA1 191205Z 21007KT 05/M04 A3002 RMK A01 T00511039  RH  052%=      5-min Rain = 0
KVA1 191206Z 21007KT 05/M04 A3002 RMK A01 T00511039  RH  052%=      5-min Rain = 0
KVA1 191207Z 22007KT 05/M04 A3002 RMK A01 T00511039  RH  052%=      5-min Rain = 0
KVA1 191208Z 22008KT 05/M04 A3002 RMK A01 T00511039  RH  052%=      5-min Rain = 0
KVA1 191209Z 22008KT 05/M04 A3002 RMK A01 T00501040  RH  052%=      5-min Rain = 0
KVA1 191210Z 22008KT 05/M04 A3002 RMK A01 T00501039  RH  052%=      5-min Rain = 0
KVA1 191211Z 22007KT 05/M04 A3002 RMK A01 T00501040  RH  052%=      5-min Rain = 0
KVA1 191212Z 22007KT 05/M04 A3002 RMK A01 T00501039  RH  052%=      5-min Rain = 0
KVA1 191213Z 22007KT 05/M04 A3002 RMK A01 T00501040  RH  052%=      5-min Rain = 0
KVA1 191214Z 22007KT 05/M04 A3002 RMK A01 T00501040  RH  052%=      5-min Rain = 0
KVA1 191215Z 21007KT 05/M04 A3002 RMK A01 T00501040  RH  052%=      5-min Rain = 0
KVA1 191216Z 21007KT 05/M04 A3002 RMK A01 T00501040  RH  052%=      5-min Rain = 0
KVA1 191217Z 22007KT 05/M04 A3002 RMK A01 T00511040  RH  052%=      5-min Rain = 0
KVA1 191218Z 21007KT 05/M04 A3002 RMK A01 T00511040  RH  052%=      5-min Rain = 0
KVA1 191219Z 21007KT 05/M04 A3002 RMK A01 T00511039  RH  052%=      5-min Rain = 0
KVA1 191220Z 21007KT 05/M04 A3002 RMK A01 T00511040  RH  052%=      5-min Rain = 0
KVA1 191221Z 21006KT 05/M04 A3002 RMK A01 T00511040  RH  052%=      5-min Rain = 0
KVA1 191222Z 22007KT 05/M04 A3002 RMK A01 T00511040  RH  052%=      5-min Rain = 0
KVA1 191223Z 22007KT 05/M04 A3002 RMK A01 T00511040  RH  052%=      5-min Rain = 0
KVA1 191224Z 22007KT 05/M04 A3002 RMK A01 T00511040  RH  052%=      5-min Rain = 0
KVA1 191225Z 22007KT 05/M04 A3002 RMK A01 T00511040  RH  052%=      5-min Rain = 0
KVA1 191226Z 21007KT 05/M04 A3002 RMK A01 T00511039  RH  052%=      5-min Rain = 0
KVA1 191227Z 22007KT 05/M04 A3002 RMK A01 T00511039  RH  052%=      5-min Rain = 0
KVA1 191228Z 21007KT 05/M04 A3002 RMK A01 T00511039  RH  052%=      5-min Rain = 0
KVA1 191229Z 21007KT 05/M04 A3002 RMK A01 T00511039  RH  052%=      5-min Rain = 0
KVA1 191230Z 21008KT 05/M04 A3002 RMK A01 T00511039  RH  052%=      5-min Rain = 0
KVA1 191231Z 21007KT 05/M04 A3002 RMK A01 T00511039  RH  052%=      5-min Rain = 0
KVA1 191232Z 20007KT 05/M04 A3002 RMK A01 T00511039  RH  052%=      5-min Rain = 0
KVA1 191233Z 21007KT 05/M04 A3002 RMK A01 T00521039  RH  052%=      5-min Rain = 0
KVA1 191234Z 21008KT 05/M04 A3002 RMK A01 T00521039  RH  052%=      5-min Rain = 0
KVA1 191235Z 21008KT 05/M04 A3003 RMK A01 T00521039  RH  052%=      5-min Rain = 0
KVA1 191236Z 21008KT 05/M04 A3003 RMK A01 T00521039  RH  052%=      5-min Rain = 0
KVA1 191237Z 21008KT 05/M04 A3003 RMK A01 T00531038  RH  052%=      5-min Rain = 0
KVA1 191238Z 21008KT 05/M04 A3003 RMK A01 T00531038  RH  052%=      5-min Rain = 0
KVA1 191239Z 21008KT 05/M04 A3003 RMK A01 T00531038  RH  052%=      5-min Rain = 0
KVA1 191240Z 21008KT 05/M04 A3003 RMK A01 T00531038  RH  052%=      5-min Rain = 0
KVA1 191241Z 21008KT 05/M04 A3003 RMK A01 T00531039  RH  052%=      5-min Rain = 0
KVA1 191242Z 21008KT 05/M04 A3003 RMK A01 T00531038  RH  052%=      5-min Rain = 0
KVA1 191243Z 21007KT 05/M04 A3003 RMK A01 T00531039  RH  052%=      5-min Rain = 0
KVA1 191244Z 21007KT 05/M04 A3003 RMK A01 T00531039  RH  052%=      5-min Rain = 0
KVA1 191245Z 21007KT 05/M04 A3003 RMK A01 T00531039  RH  052%=      5-min Rain = 0
KVA1 191246Z 21008KT 05/M04 A3003 RMK A01 T00531039  RH  051%=      5-min Rain = 0
KVA1 191247Z 21007KT 05/M04 A3003 RMK A01 T00531039  RH  051%=      5-min Rain = 0
KVA1 191248Z 21008KT 05/M04 A3003 RMK A01 T00531039  RH  051%=      5-min Rain = 0
KVA1 191249Z 21008KT 05/M04 A3003 RMK A01 T00531039  RH  051%=      5-min Rain = 0
KVA1 191250Z 21008KT 05/M04 A3003 RMK A01 T00531039  RH  051%=      5-min Rain = 0
KVA1 191251Z 21008KT 05/M04 A3003 RMK A01 T00531039  RH  051%=      5-min Rain = 0
KVA1 191252Z 21008KT 05/M04 A3003 RMK A01 T00531039  RH  051%=      5-min Rain = 0
KVA1 191253Z 21008KT 05/M04 A3003 RMK A01 T00531039  RH  051%=      5-min Rain = 0
KVA1 191254Z 21008KT 05/M04 A3003 RMK A01 T00531039  RH  051%=      5-min Rain = 0
KVA1 191255Z 21008KT 05/M04 A3003 RMK A01 T00531039  RH  051%=      5-min Rain = 0
KVA1 191256Z 21008KT 05/M04 A3003 RMK A01 T00531039  RH  051%=      5-min Rain = 0
KVA1 191257Z 21008KT 05/M04 A3003 RMK A01 T00531039  RH  051%=      5-min Rain = 0
KVA1 191258Z 21009KT 05/M04 A3003 RMK A01 T00531039  RH  051%=      5-min Rain = 0
KVA1 191259Z 21008KT 05/M04 A3003 RMK A01 T00531039  RH  052%=      5-min Rain = 0
KVA1 191300Z 22008KT 05/M04 A3003 RMK A01 T00531039  RH  052%=      5-min Rain = 0
KVA1 191301Z 22008KT 05/M04 A3003 RMK A01 T00531039  RH  052%=      5-min Rain = 0
KVA1 191302Z 22007KT 05/M04 A3003 RMK A01 T00521039  RH  052%=      5-min Rain = 0
KVA1 191303Z 22008KT 05/M04 A3003 RMK A01 T00521039  RH  052%=      5-min Rain = 0
KVA1 191304Z 22008KT 05/M04 A3003 RMK A01 T00511039  RH  052%=      5-min Rain = 0
KVA1 191305Z 22007KT 05/M04 A3003 RMK A01 T00511040  RH  052%=      5-min Rain = 0
KVA1 191306Z 22007KT 05/M04 A3003 RMK A01 T00501039  RH  052%=      5-min Rain = 0
KVA1 191307Z 21007KT 05/M04 A3003 RMK A01 T00501040  RH  052%=      5-min Rain = 0
KVA1 191308Z 21008KT 05/M04 A3003 RMK A01 T00501039  RH  053%=      5-min Rain = 0
KVA1 191309Z 22008KT 05/M04 A3003 RMK A01 T00501039  RH  053%=      5-min Rain = 0
KVA1 191310Z 22008KT 05/M04 A3003 RMK A01 T00491039  RH  053%=      5-min Rain = 0
KVA1 191311Z 22007KT 05/M04 A3003 RMK A01 T00491039  RH  053%=      5-min Rain = 0
KVA1 191312Z 22008KT 05/M04 A3003 RMK A01 T00491040  RH  053%=      5-min Rain = 0
KVA1 191313Z 23008KT 05/M04 A3003 RMK A01 T00491039  RH  053%=      5-min Rain = 0
KVA1 191314Z 23008KT 05/M04 A3003 RMK A01 T00491040  RH  053%=      5-min Rain = 0
KVA1 191315Z 23008KT 05/M04 A3004 RMK A01 T00491040  RH  053%=      5-min Rain = 0
KVA1 191316Z 23008KT 05/M04 A3004 RMK A01 T00481040  RH  053%=      5-min Rain = 0
KVA1 191317Z 23007KT 05/M04 A3004 RMK A01 T00481039  RH  053%=      5-min Rain = 0
KVA1 191318Z 23007KT 05/M04 A3004 RMK A01 T00471040  RH  053%=      5-min Rain = 0
KVA1 191319Z 24006KT 05/M04 A3004 RMK A01 T00471040  RH  054%=      5-min Rain = 0
KVA1 191320Z 23006KT 05/M04 A3004 RMK A01 T00461039  RH  054%=      5-min Rain = 0
KVA1 191321Z 24007KT 05/M04 A3004 RMK A01 T00461039  RH  054%=      5-min Rain = 0
KVA1 191322Z 23007KT 05/M04 A3004 RMK A01 T00461040  RH  054%=      5-min Rain = 0
KVA1 191323Z 23006KT 05/M04 A3004 RMK A01 T00471040  RH  054%=      5-min Rain = 0
KVA1 191324Z 23006KT 05/M04 A3004 RMK A01 T00461040  RH  054%=      5-min Rain = 0
KVA1 191325Z 23007KT 05/M04 A3004 RMK A01 T00461040  RH  054%=      5-min Rain = 0
KVA1 191326Z 23007KT 05/M04 A3004 RMK A01 T00461040  RH  054%=      5-min Rain = 0
KVA1 191327Z 23006KT 05/M04 A3004 RMK A01 T00461040  RH  054%=      5-min Rain = 0
KVA1 191328Z 23006KT 05/M04 A3004 RMK A01 T00461041  RH  054%=      5-min Rain = 0
KVA1 191329Z 23006KT 05/M04 A3004 RMK A01 T00461041  RH  054%=      5-min Rain = 0
KVA1 191330Z 23006KT 05/M04 A3004 RMK A01 T00461041  RH  054%=      5-min Rain = 0
KVA1 191331Z 23006KT 05/M04 A3004 RMK A01 T00461041  RH  054%=      5-min Rain = 0
KVA1 191332Z 23006KT 05/M04 A3004 RMK A01 T00461041  RH  054%=      5-min Rain = 0
KVA1 191333Z 23006KT 05/M04 A3004 RMK A01 T00461041  RH  054%=      5-min Rain = 0
KVA1 191334Z 23006KT 05/M04 A3004 RMK A01 T00461041  RH  054%=      5-min Rain = 0
KVA1 191335Z 23007KT 05/M04 A3004 RMK A01 T00461040  RH  054%=      5-min Rain = 0
KVA1 191336Z 23007KT 05/M04 A3004 RMK A01 T00461041  RH  053%=      5-min Rain = 0
KVA1 191337Z 23007KT 05/M04 A3004 RMK A01 T00461041  RH  053%=      5-min Rain = 0
KVA1 191338Z 22006KT 05/M04 A3004 RMK A01 T00461041  RH  053%=      5-min Rain = 0
KVA1 191339Z 22006KT 05/M04 A3004 RMK A01 T00461040  RH  053%=      5-min Rain = 0
KVA1 191340Z 22006KT 05/M04 A3004 RMK A01 T00461040  RH  053%=      5-min Rain = 0
KVA1 191341Z 22006KT 05/M04 A3004 RMK A01 T00461040  RH  054%=      5-min Rain = 0
KVA1 191342Z 22006KT 05/M04 A3004 RMK A01 T00461040  RH  054%=      5-min Rain = 0
KVA1 191343Z 21006KT 05/M04 A3004 RMK A01 T00461040  RH  054%=      5-min Rain = 0
KVA1 191344Z 21005KT 05/M04 A3004 RMK A01 T00461040  RH  054%=      5-min Rain = 0
KVA1 191345Z 21005KT 05/M04 A3004 RMK A01 T00461040  RH  054%=      5-min Rain = 0
KVA1 191346Z 21006KT 05/M04 A3004 RMK A01 T00461040  RH  054%=      5-min Rain = 0
KVA1 191347Z 21007KT 05/M04 A3004 RMK A01 T00461041  RH  053%=      5-min Rain = 0
KVA1 191348Z 22007KT 05/M04 A3004 RMK A01 T00461040  RH  053%=      5-min Rain = 0
KVA1 191349Z 22008KT 05/M04 A3004 RMK A01 T00471040  RH  053%=      5-min Rain = 0
KVA1 191350Z 22007KT 05/M04 A3004 RMK A01 T00471040  RH  053%=      5-min Rain = 0
KVA1 191351Z 22008KT 05/M04 A3004 RMK A01 T00481040  RH  053%=      5-min Rain = 0
KVA1 191352Z 22008KT 05/M04 A3005 RMK A01 T00481039  RH  053%=      5-min Rain = 0
KVA1 191353Z 22007KT 05/M04 A3005 RMK A01 T00491039  RH  053%=      5-min Rain = 0
KVA1 191354Z 22008KT 05/M04 A3005 RMK A01 T00491039  RH  053%=      5-min Rain = 0
KVA1 191355Z 22007KT 05/M04 A3005 RMK A01 T00491039  RH  053%=      5-min Rain = 0
KVA1 191356Z 22008KT 05/M04 A3005 RMK A01 T00501039  RH  053%=      5-min Rain = 0
KVA1 191357Z 22007KT 05/M04 A3005 RMK A01 T00501039  RH  053%=      5-min Rain = 0
KVA1 191358Z 22007KT 05/M04 A3005 RMK A01 T00511039  RH  052%=      5-min Rain = 0
KVA1 191359Z 22008KT 05/M04 A3005 RMK A01 T00511038  RH  052%=      5-min Rain = 0
KVA1 191400Z 21007KT 05/M04 A3005 RMK A01 T00521038  RH  052%=      5-min Rain = 0
KVA1 191401Z 22008KT 05/M04 A3005 RMK A01 T00521038  RH  052%=      5-min Rain = 0
KVA1 191402Z 22009KT 05/M04 A3005 RMK A01 T00531038  RH  052%=      5-min Rain = 0
KVA1 191403Z 22009KT 05/M04 A3005 RMK A01 T00541038  RH  052%=      5-min Rain = 0
KVA1 191404Z 22008KT 05/M04 A3005 RMK A01 T00541038  RH  051%=      5-min Rain = 0
KVA1 191405Z 22008KT 05/M04 A3005 RMK A01 T00541038  RH  051%=      5-min Rain = 0
KVA1 191406Z 21009KT 06/M04 A3005 RMK A01 T00551038  RH  051%=      5-min Rain = 0
KVA1 191407Z 21008KT 06/M04 A3005 RMK A01 T00551038  RH  051%=      5-min Rain = 0
KVA1 191408Z 21008KT 06/M04 A3005 RMK A01 T00561038  RH  051%=      5-min Rain = 0
KVA1 191409Z 21008KT 06/M04 A3005 RMK A01 T00561038  RH  051%=      5-min Rain = 0
KVA1 191410Z 21007KT 06/M04 A3005 RMK A01 T00561038  RH  051%=      5-min Rain = 0
KVA1 191411Z 22009KT 06/M04 A3005 RMK A01 T00571038  RH  051%=      5-min Rain = 0
KVA1 191412Z 22009KT 06/M04 A3006 RMK A01 T00571037  RH  051%=      5-min Rain = 0
KVA1 191413Z 22009KT 06/M04 A3006 RMK A01 T00571038  RH  051%=      5-min Rain = 0
KVA1 191414Z 22010KT 06/M04 A3006 RMK A01 T00571038  RH  050%=      5-min Rain = 0
KVA1 191415Z 22008KT 06/M04 A3006 RMK A01 T00571038  RH  050%=      5-min Rain = 0
KVA1 191416Z 22009KT 06/M04 A3006 RMK A01 T00581038  RH  050%=      5-min Rain = 0
KVA1 191417Z 22009KT 06/M04 A3006 RMK A01 T00581038  RH  050%=      5-min Rain = 0
KVA1 191418Z 22009KT 06/M04 A3006 RMK A01 T00591038  RH  050%=      5-min Rain = 0
KVA1 191419Z 22010KT 06/M04 A3006 RMK A01 T00591038  RH  050%=      5-min Rain = 0
KVA1 191420Z 21008KT 06/M04 A3006 RMK A01 T00601038  RH  050%=      5-min Rain = 0
KVA1 191421Z 22008KT 06/M04 A3006 RMK A01 T00601037  RH  050%=      5-min Rain = 0
KVA1 191422Z 22009KT 06/M04 A3006 RMK A01 T00611037  RH  049%=      5-min Rain = 0
KVA1 191423Z 22008KT 06/M04 A3006 RMK A01 T00621037  RH  049%=      5-min Rain = 0
KVA1 191424Z 21008KT 06/M04 A3006 RMK A01 T00621037  RH  049%=      5-min Rain = 0
KVA1 191425Z 21009KT 06/M04 A3006 RMK A01 T00631037  RH  049%=      5-min Rain = 0
KVA1 191426Z 22008KT 06/M04 A3006 RMK A01 T00631037  RH  049%=      5-min Rain = 0
KVA1 191427Z 21008KT 06/M04 A3006 RMK A01 T00631037  RH  049%=      5-min Rain = 0
KVA1 191428Z 21008KT 06/M04 A3006 RMK A01 T00641037  RH  049%=      5-min Rain = 0
KVA1 191429Z 21008KT 07/M04 A3006 RMK A01 T00651037  RH  048%=      5-min Rain = 0
KVA1 191430Z 21007KT 07/M04 A3006 RMK A01 T00651037  RH  048%=      5-min Rain = 0
KVA1 191431Z 21007KT 07/M04 A3006 RMK A01 T00661036  RH  048%=      5-min Rain = 0
KVA1 191432Z 22009KT 07/M04 A3006 RMK A01 T00671036  RH  048%=      5-min Rain = 0
KVA1 191433Z 21008KT 07/M04 A3006 RMK A01 T00671036  RH  048%=      5-min Rain = 0
KVA1 191434Z 21008KT 07/M04 A3006 RMK A01 T00681036  RH  048%=      5-min Rain = 0
KVA1 191435Z 22007KT 07/M04 A3006 RMK A01 T00691035  RH  047%=      5-min Rain = 0
KVA1 191436Z 21008KT 07/M04 A3006 RMK A01 T00691036  RH  047%=      5-min Rain = 0
KVA1 191437Z 21009KT 07/M04 A3006 RMK A01 T00701035  RH  047%=      5-min Rain = 0
KVA1 191438Z 21008KT 07/M04 A3006 RMK A01 T00711035  RH  047%=      5-min Rain = 0
KVA1 191439Z 21007KT 07/M04 A3006 RMK A01 T00711035  RH  047%=      5-min Rain = 0
KVA1 191440Z 21008KT 07/M04 A3006 RMK A01 T00711036  RH  046%=      5-min Rain = 0
KVA1 191441Z 22007KT 07/M04 A3006 RMK A01 T00731035  RH  046%=      5-min Rain = 0
KVA1 191442Z 21007KT 07/M03 A3006 RMK A01 T00731034  RH  046%=      5-min Rain = 0
KVA1 191443Z 21008KT 07/M04 A3006 RMK A01 T00741035  RH  046%=      5-min Rain = 0
KVA1 191444Z 21006KT 07/M04 A3006 RMK A01 T00741035  RH  046%=      5-min Rain = 0
KVA1 191445Z 21007KT 08/M03 A3006 RMK A01 T00751034  RH  046%=      5-min Rain = 0
KVA1 191446Z 21007KT 08/M03 A3006 RMK A01 T00761034  RH  045%=      5-min Rain = 0
KVA1 191447Z 21007KT 08/M03 A3006 RMK A01 T00771034  RH  045%=      5-min Rain = 0
KVA1 191448Z 21008KT 08/M03 A3006 RMK A01 T00771034  RH  045%=      5-min Rain = 0
KVA1 191449Z 21006KT 08/M04 A3006 RMK A01 T00771035  RH  045%=      5-min Rain = 0
KVA1 191450Z 21006KT 08/M03 A3006 RMK A01 T00791033  RH  045%=      5-min Rain = 0
KVA1 191451Z 22006KT 08/M03 A3006 RMK A01 T00801033  RH  045%=      5-min Rain = 0
KVA1 191452Z 22006KT 08/M03 A3006 RMK A01 T00811033  RH  044%=      5-min Rain = 0
KVA1 191453Z 21006KT 08/M03 A3006 RMK A01 T00821033  RH  044%=      5-min Rain = 0
KVA1 191454Z 22007KT 08/M03 A3006 RMK A01 T00831033  RH  044%=      5-min Rain = 0
KVA1 191455Z 21007KT 08/M03 A3006 RMK A01 T00831033  RH  044%=      5-min Rain = 0
KVA1 191456Z 21007KT 08/M03 A3006 RMK A01 T00841033  RH  043%=      5-min Rain = 0
KVA1 191457Z 22007KT 09/M03 A3006 RMK A01 T00851033  RH  043%=      5-min Rain = 0
KVA1 191458Z 21007KT 09/M03 A3006 RMK A01 T00861033  RH  043%=      5-min Rain = 0
KVA1 191459Z 22006KT 09/M03 A3006 RMK A01 T00861033  RH  043%=      5-min Rain = 0
KVA1 191500Z 22006KT 09/M03 A3006 RMK A01 T00871032  RH  043%=      5-min Rain = 0
KVA1 191501Z 22006KT 09/M03 A3006 RMK A01 T00891032  RH  043%=      5-min Rain = 0
KVA1 191502Z 22006KT 09/M03 A3006 RMK A01 T00891032  RH  042%=      5-min Rain = 0
KVA1 191503Z 22007KT 09/M03 A3006 RMK A01 T00891032  RH  042%=      5-min Rain = 0
KVA1 191504Z 22006KT 09/M03 A3006 RMK A01 T00901032  RH  042%=      5-min Rain = 0
KVA1 191505Z 22006KT 09/M03 A3006 RMK A01 T00921031  RH  042%=      5-min Rain = 0
KVA1 191506Z 23005KT 09/M03 A3006 RMK A01 T00931031  RH  041%=      5-min Rain = 0
KVA1 191507Z 23005KT 10/M03 A3006 RMK A01 T00951030  RH  041%=      5-min Rain = 0
KVA1 191508Z 22005KT 10/M03 A3006 RMK A01 T00971029  RH  041%=      5-min Rain = 0
KVA1 191509Z 22005KT 10/M03 A3006 RMK A01 T00981029  RH  041%=      5-min Rain = 0
KVA1 191510Z 21005KT 10/M03 A3006 RMK A01 T00991029  RH  040%=      5-min Rain = 0
KVA1 191511Z 21005KT 10/M03 A3006 RMK A01 T01011029  RH  040%=      5-min Rain = 0
KVA1 191512Z 21006KT 10/M03 A3006 RMK A01 T01021030  RH  040%=      5-min Rain = 0
KVA1 191513Z 21006KT 10/M03 A3006 RMK A01 T01031030  RH  039%=      5-min Rain = 0
KVA1 191514Z 20007KT 10/M03 A3006 RMK A01 T01041029  RH  039%=      5-min Rain = 0
KVA1 191515Z 21007KT 11/M03 A3006 RMK A01 T01051030  RH  039%=      5-min Rain = 0
KVA1 191516Z 21007KT 11/M03 A3006 RMK A01 T01061029  RH  039%=      5-min Rain = 0
KVA1 191517Z 21006KT 11/M03 A3006 RMK A01 T01061028  RH  039%=      5-min Rain = 0
KVA1 191518Z 21007KT 11/M03 A3006 RMK A01 T01081029  RH  038%=      5-min Rain = 0
KVA1 191519Z 21007KT 11/M03 A3006 RMK A01 T01091028  RH  038%=      5-min Rain = 0
KVA1 191520Z 21007KT 11/M03 A3006 RMK A01 T01111028  RH  038%=      5-min Rain = 0
KVA1 191521Z 21007KT 11/M03 A3006 RMK A01 T01111028  RH  037%=      5-min Rain = 0
KVA1 191522Z 21006KT 11/M03 A3006 RMK A01 T01121029  RH  037%=      5-min Rain = 0
KVA1 191523Z 21006KT 11/M03 A3006 RMK A01 T01131027  RH  037%=      5-min Rain = 0
KVA1 191524Z 20007KT 12/M03 A3006 RMK A01 T01151026  RH  037%=      5-min Rain = 0
KVA1 191525Z 21008KT 12/M03 A3006 RMK A01 T01171027  RH  037%=      5-min Rain = 0
KVA1 191526Z 21008KT 12/M03 A3006 RMK A01 T01171028  RH  036%=      5-min Rain = 0
KVA1 191527Z 21008KT 12/M03 A3006 RMK A01 T01171029  RH  036%=      5-min Rain = 0
KVA1 191528Z 21008KT 12/M03 A3006 RMK A01 T01181028  RH  036%=      5-min Rain = 0
KVA1 191529Z 21007KT 12/M03 A3006 RMK A01 T01191028  RH  036%=      5-min Rain = 0
KVA1 191530Z 21007KT 12/M03 A3006 RMK A01 T01211026  RH  036%=      5-min Rain = 0
KVA1 191531Z 21007KT 12/M03 A3006 RMK A01 T01231027  RH  035%=      5-min Rain = 0
KVA1 191532Z 20005KT 13/M03 A3006 RMK A01 T01251025  RH  035%=      5-min Rain = 0
KVA1 191533Z 21007KT 13/M03 A3006 RMK A01 T01271025  RH  035%=      5-min Rain = 0
KVA1 191534Z 20008KT 13/M03 A3006 RMK A01 T01281025  RH  034%=      5-min Rain = 0
KVA1 191535Z 21008KT 13/M03 A3006 RMK A01 T01291026  RH  034%=      5-min Rain = 0
KVA1 191536Z 20008KT 13/M03 A3006 RMK A01 T01291026  RH  034%=      5-min Rain = 0
KVA1 191537Z 21007KT 13/M03 A3006 RMK A01 T01311026  RH  034%=      5-min Rain = 0
KVA1 191538Z 20006KT 13/M03 A3006 RMK A01 T01321026  RH  033%=      5-min Rain = 0
KVA1 191539Z 20006KT 13/M03 A3006 RMK A01 T01331025  RH  033%=      5-min Rain = 0
KVA1 191540Z 20007KT 13/M03 A3006 RMK A01 T01341026  RH  033%=      5-min Rain = 0
KVA1 191541Z 20008KT 14/M03 A3006 RMK A01 T01351025  RH  033%=      5-min Rain = 0
KVA1 191542Z 20007KT 14/M03 A3006 RMK A01 T01361026  RH  032%=      5-min Rain = 0
KVA1 191543Z 20007KT 14/M03 A3006 RMK A01 T01371025  RH  033%=      5-min Rain = 0
KVA1 191544Z 21006KT 14/M02 A3006 RMK A01 T01391024  RH  032%=      5-min Rain = 0
KVA1 191545Z 20005KT 14/M02 A3006 RMK A01 T01401023  RH  032%=      5-min Rain = 0
KVA1 191546Z 19005KT 14/M02 A3006 RMK A01 T01411024  RH  032%=      5-min Rain = 0
KVA1 191547Z 19005KT 14/M02 A3006 RMK A01 T01421023  RH  032%=      5-min Rain = 0
KVA1 191548Z 20006KT 14/M02 A3006 RMK A01 T01431023  RH  032%=      5-min Rain = 0
KVA1 191549Z 19005KT 14/M02 A3006 RMK A01 T01421024  RH  032%=      5-min Rain = 0
KVA1 191550Z 19005KT 14/M02 A3006 RMK A01 T01421024  RH  032%=      5-min Rain = 0
KVA1 191551Z 18005KT 14/M03 A3006 RMK A01 T01421025  RH  031%=      5-min Rain = 0
KVA1 191552Z 19006KT 14/M03 A3006 RMK A01 T01421025  RH  031%=      5-min Rain = 0
KVA1 191553Z 19005KT 14/M02 A3006 RMK A01 T01421024  RH  031%=      5-min Rain = 0
KVA1 191554Z 19004KT 14/M02 A3006 RMK A01 T01431023  RH  032%=      5-min Rain = 0
KVA1 191555Z 17005KT 14/M02 A3006 RMK A01 T01441022  RH  032%=      5-min Rain = 0
KVA1 191556Z 17005KT 15/M02 A3006 RMK A01 T01451023  RH  031%=      5-min Rain = 0
KVA1 191557Z 17005KT 15/M02 A3006 RMK A01 T01461023  RH  031%=      5-min Rain = 0
KVA1 191558Z 18005KT 15/M02 A3006 RMK A01 T01461023  RH  031%=      5-min Rain = 0
KVA1 191559Z 17005KT 15/M02 A3006 RMK A01 T01461023  RH  031%=      5-min Rain = 0
KVA1 191600Z 18006KT 15/M02 A3006 RMK A01 T01471024  RH  031%=      5-min Rain = 0
KVA1 191601Z 18005KT 15/M02 A3006 RMK A01 T01471023  RH  031%=      5-min Rain = 0
KVA1 191602Z 18004KT 15/M02 A3006 RMK A01 T01481023  RH  031%=      5-min Rain = 0
KVA1 191603Z 18005KT 15/M02 A3006 RMK A01 T01481023  RH  031%=      5-min Rain = 0
KVA1 191604Z 18005KT 15/M02 A3006 RMK A01 T01501022  RH  031%=      5-min Rain = 0
KVA1 191605Z 18005KT 15/M02 A3006 RMK A01 T01501022  RH  031%=      5-min Rain = 0
KVA1 191606Z 18006KT 15/M02 A3006 RMK A01 T01511022  RH  030%=      5-min Rain = 0
KVA1 191607Z 18006KT 15/M02 A3006 RMK A01 T01521022  RH  030%=      5-min Rain = 0
KVA1 191608Z 19006KT 15/M02 A3006 RMK A01 T01511021  RH  030%=      5-min Rain = 0
KVA1 191609Z 19004KT 15/M02 A3006 RMK A01 T01521021  RH  030%=      5-min Rain = 0
KVA1 191610Z 20005KT 15/M02 A3006 RMK A01 T01541019  RH  030%=      5-min Rain = 0
KVA1 191611Z 19005KT 16/M02 A3006 RMK A01 T01561020  RH  030%=      5-min Rain = 0
KVA1 191612Z 19006KT 16/M02 A3006 RMK A01 T01571022  RH  029%=      5-min Rain = 0
KVA1 191613Z 18006KT 16/M02 A3006 RMK A01 T01571022  RH  029%=      5-min Rain = 0
KVA1 191614Z 19006KT 16/M02 A3006 RMK A01 T01591022  RH  029%=      5-min Rain = 0
KVA1 191615Z 18006KT 16/M02 A3006 RMK A01 T01591022  RH  029%=      5-min Rain = 0
KVA1 191616Z 19006KT 16/M02 A3006 RMK A01 T01601022  RH  029%=      5-min Rain = 0
KVA1 191617Z 18006KT 16/M02 A3006 RMK A01 T01611022  RH  029%=      5-min Rain = 0
KVA1 191618Z 18007KT 16/M02 A3006 RMK A01 T01621021  RH  028%=      5-min Rain = 0
KVA1 191619Z 19007KT 16/M02 A3006 RMK A01 T01631023  RH  028%=      5-min Rain = 0
KVA1 191620Z 19006KT 16/M02 A3006 RMK A01 T01621023  RH  028%=      5-min Rain = 0
KVA1 191621Z 20006KT 16/M02 A3006 RMK A01 T01631022  RH  028%=      5-min Rain = 0
KVA1 191622Z 19006KT 16/M02 A3006 RMK A01 T01641021  RH  028%=      5-min Rain = 0
KVA1 191623Z 19007KT 17/M02 A3006 RMK A01 T01661020  RH  028%=      5-min Rain = 0
KVA1 191624Z 19007KT 17/M02 A3006 RMK A01 T01671020  RH  028%=      5-min Rain = 0
KVA1 191625Z 20007KT 17/M02 A3006 RMK A01 T01681021  RH  027%=      5-min Rain = 0
KVA1 191626Z 20007KT 17/M02 A3006 RMK A01 T01681021  RH  027%=      5-min Rain = 0
KVA1 191627Z 20006KT 17/M02 A3006 RMK A01 T01681021  RH  028%=      5-min Rain = 0
KVA1 191628Z 20005KT 17/M02 A3006 RMK A01 T01691019  RH  028%=      5-min Rain = 0
KVA1 191629Z 18006KT 17/M02 A3006 RMK A01 T01711018  RH  028%=      5-min Rain = 0
KVA1 191630Z 20007KT 17/M02 A3006 RMK A01 T01721018  RH  027%=      5-min Rain = 0
KVA1 191631Z 20006KT 17/M02 A3006 RMK A01 T01731018  RH  027%=      5-min Rain = 0
KVA1 191632Z 20007KT 17/M02 A3006 RMK A01 T01731020  RH  027%=      5-min Rain = 0
KVA1 191633Z 20006KT 17/M02 A3006 RMK A01 T01711020  RH  027%=      5-min Rain = 0
KVA1 191634Z 18006KT 17/M02 A3006 RMK A01 T01711019  RH  027%=      5-min Rain = 0
KVA1 191635Z 20006KT 17/M02 A3006 RMK A01 T01721017  RH  027%=      5-min Rain = 0
KVA1 191636Z 20007KT 17/M02 A3006 RMK A01 T01741017  RH  027%=      5-min Rain = 0
KVA1 191637Z 21006KT 18/M02 A3006 RMK A01 T01751017  RH  027%=      5-min Rain = 0
KVA1 191638Z 21006KT 18/M02 A3006 RMK A01 T01761017  RH  027%=      5-min Rain = 0
KVA1 191639Z 20006KT 18/M02 A3006 RMK A01 T01771015  RH  027%=      5-min Rain = 0
KVA1 191640Z 21006KT 18/M02 A3006 RMK A01 T01781015  RH  027%=      5-min Rain = 0
KVA1 191641Z 21007KT 18/M02 A3005 RMK A01 T01791016  RH  026%=      5-min Rain = 0
KVA1 191642Z 22006KT 18/M02 A3005 RMK A01 T01791016  RH  026%=      5-min Rain = 0
KVA1 191643Z 20006KT 18/M02 A3005 RMK A01 T01791017  RH  026%=      5-min Rain = 0
KVA1 191644Z 20005KT 18/M02 A3005 RMK A01 T01781016  RH  027%=      5-min Rain = 0
KVA1 191645Z 19005KT 18/M02 A3005 RMK A01 T01801015  RH  027%=      5-min Rain = 0
KVA1 191646Z 20007KT 18/M01 A3005 RMK A01 T01811014  RH  027%=      5-min Rain = 0
KVA1 191647Z 20006KT 18/M02 A3005 RMK A01 T01811016  RH  026%=      5-min Rain = 0
KVA1 191648Z 19006KT 18/M02 A3005 RMK A01 T01801015  RH  027%=      5-min Rain = 0
KVA1 191649Z 21006KT 18/M02 A3005 RMK A01 T01811015  RH  026%=      5-min Rain = 0
KVA1 191650Z 21006KT 18/M02 A3005 RMK A01 T01811016  RH  026%=      5-min Rain = 0
KVA1 191651Z 19006KT 18/M01 A3005 RMK A01 T01821014  RH  026%=      5-min Rain = 0
KVA1 191652Z 22006KT 18/M02 A3005 RMK A01 T01831015  RH  026%=      5-min Rain = 0
KVA1 191653Z 20005KT 18/M02 A3005 RMK A01 T01841015  RH  026%=      5-min Rain = 0
KVA1 191654Z 20007KT 18/M02 A3005 RMK A01 T01841015  RH  026%=      5-min Rain = 0
KVA1 191655Z 20007KT 19/M02 A3005 RMK A01 T01851016  RH  026%=      5-min Rain = 0
KVA1 191656Z 21007KT 18/M02 A3005 RMK A01 T01841017  RH  026%=      5-min Rain = 0
KVA1 191657Z 21007KT 18/M02 A3005 RMK A01 T01831017  RH  026%=      5-min Rain = 0
KVA1 191658Z 21006KT 18/M02 A3005 RMK A01 T01831017  RH  026%=      5-min Rain = 0
KVA1 191659Z 21008KT 18/M02 A3005 RMK A01 T01841017  RH  026%=      5-min Rain = 0
KVA1 191700Z 21008KT 18/M02 A3005 RMK A01 T01841018  RH  025%=      5-min Rain = 0
KVA1 191701Z 21007KT 18/M02 A3005 RMK A01 T01841017  RH  025%=      5-min Rain = 0
KVA1 191702Z 23006KT 19/M02 A3005 RMK A01 T01861017  RH  025%=      5-min Rain = 0
KVA1 191703Z 20006KT 19/M02 A3005 RMK A01 T01881015  RH  025%=      5-min Rain = 0
KVA1 191704Z 21008KT 19/M02 A3005 RMK A01 T01901016  RH  025%=      5-min Rain = 0
KVA1 191705Z 21007KT 19/M02 A3005 RMK A01 T01901017  RH  025%=      5-min Rain = 0
KVA1 191706Z 20007KT 19/M02 A3005 RMK A01 T01901016  RH  025%=      5-min Rain = 0
KVA1 191707Z 21007KT 19/M02 A3005 RMK A01 T01901017  RH  025%=      5-min Rain = 0
KVA1 191708Z 20008KT 19/M02 A3005 RMK A01 T01901017  RH  025%=      5-min Rain = 0
KVA1 191709Z 20008KT 19/M02 A3005 RMK A01 T01911017  RH  025%=      5-min Rain = 0
KVA1 191710Z 21007KT 19/M02 A3005 RMK A01 T01931016  RH  024%=      5-min Rain = 0
KVA1 191711Z 22006KT 19/M02 A3005 RMK A01 T01931017  RH  024%=      5-min Rain = 0
KVA1 191712Z 22005KT 19/M02 A3005 RMK A01 T01941016  RH  024%=      5-min Rain = 0
KVA1 191713Z 21006KT 20/M02 A3005 RMK A01 T01961015  RH  024%=      5-min Rain = 0
KVA1 191714Z 20009KT 20/M01 A3004 RMK A01 T01981014  RH  024%=      5-min Rain = 0
KVA1 191715Z 21008KT 20/M02 A3004 RMK A01 T01991015  RH  024%=      5-min Rain = 0
KVA1 191716Z 22010KT 20/M02 A3004 RMK A01 T01991015  RH  023%=      5-min Rain = 0
KVA1 191717Z 22007KT 20/M02 A3004 RMK A01 T02001017  RH  023%=      5-min Rain = 0
KVA1 191718Z 22008KT 20/M01 A3004 RMK A01 T02021013  RH  023%=      5-min Rain = 0
KVA1 191719Z 21010KT 20/M01 A3004 RMK A01 T02041014  RH  023%=      5-min Rain = 0
KVA1 191720Z 21009KT 20/M02 A3004 RMK A01 T02041016  RH  023%=      5-min Rain = 0
KVA1 191721Z 21009KT 20/M02 A3004 RMK A01 T02031016  RH  023%=      5-min Rain = 0
KVA1 191722Z 23009KT 20/M02 A3004 RMK A01 T02041015  RH  023%=      5-min Rain = 0
KVA1 191723Z 22009KT 21/M02 A3004 RMK A01 T02051016  RH  022%=      5-min Rain = 0
KVA1 191724Z 21008KT 21/M02 A3004 RMK A01 T02061015  RH  023%=      5-min Rain = 0
KVA1 191725Z 23009KT 21/M02 A3004 RMK A01 T02071015  RH  022%=      5-min Rain = 0
KVA1 191726Z 22009KT 21/M02 A3004 RMK A01 T02081017  RH  022%=      5-min Rain = 0
KVA1 191727Z 22010KT 21/M02 A3004 RMK A01 T02081016  RH  022%=      5-min Rain = 0
KVA1 191728Z 22010KT 21/M02 A3004 RMK A01 T02081017  RH  022%=      5-min Rain = 0
KVA1 191729Z 22010KT 21/M02 A3004 RMK A01 T02091017  RH  022%=      5-min Rain = 0
KVA1 191730Z 21009KT 21/M02 A3004 RMK A01 T02101017  RH  022%=      5-min Rain = 0
KVA1 191731Z 21009KT 21/M02 A3003 RMK A01 T02111016  RH  022%=      5-min Rain = 0
KVA1 191732Z 22007KT 21/M02 A3003 RMK A01 T02121016  RH  022%=      5-min Rain = 0
KVA1 191733Z 22009KT 21/M02 A3003 RMK A01 T02131015  RH  022%=      5-min Rain = 0
KVA1 191734Z 22010KT 21/M02 A3003 RMK A01 T02141017  RH  021%=      5-min Rain = 0
KVA1 191735Z 21010KT 21/M02 A3003 RMK A01 T02141016  RH  021%=      5-min Rain = 0
KVA1 191736Z 21010KT 21/M02 A3003 RMK A01 T02141018  RH  021%=      5-min Rain = 0
KVA1 191737Z 21007KT 21/M02 A3003 RMK A01 T02131017  RH  021%=      5-min Rain = 0
KVA1 191738Z 20009KT 22/M02 A3003 RMK A01 T02151015  RH  021%=      5-min Rain = 0
KVA1 191739Z 20010KT 22/M02 A3003 RMK A01 T02161015  RH  021%=      5-min Rain = 0
KVA1 191740Z 20011KT 22/M02 A3003 RMK A01 T02171018  RH  021%=      5-min Rain = 0
KVA1 191741Z 21009KT 22/M02 A3003 RMK A01 T02171017  RH  021%=      5-min Rain = 0
KVA1 191742Z 21009KT 22/M02 A3003 RMK A01 T02181015  RH  021%=      5-min Rain = 0
KVA1 191743Z 21011KT 22/M02 A3003 RMK A01 T02201017  RH  020%=      5-min Rain = 0
KVA1 191744Z 21011KT 22/M02 A3003 RMK A01 T02201019  RH  020%=      5-min Rain = 0
KVA1 191745Z 21010KT 22/M02 A3003 RMK A01 T02201018  RH  020%=      5-min Rain = 0
KVA1 191746Z 21012KT 22/M02 A3002 RMK A01 T02201018  RH  020%=      5-min Rain = 0
KVA1 191747Z 21008KT 22/M02 A3002 RMK A01 T02201017  RH  020%=      5-min Rain = 0
KVA1 191748Z 20008KT 22/M02 A3002 RMK A01 T02221015  RH  020%=      5-min Rain = 0
KVA1 191749Z 20011KT 22/M02 A3002 RMK A01 T02241017  RH  020%=      5-min Rain = 0
KVA1 191750Z 20011KT 23/M02 A3002 RMK A01 T02261018  RH  020%=      5-min Rain = 0
KVA1 191751Z 20011KT 23/M02 A3002 RMK A01 T02271018  RH  019%=      5-min Rain = 0
KVA1 191752Z 20010KT 23/M02 A3002 RMK A01 T02281018  RH  019%=      5-min Rain = 0
KVA1 191753Z 20008KT 23/M02 A3002 RMK A01 T02281017  RH  019%=      5-min Rain = 0
KVA1 191754Z 22010KT 23/M02 A3002 RMK A01 T02291016  RH  019%=      5-min Rain = 0
KVA1 191755Z 22011KT 23/M02 A3002 RMK A01 T02301020  RH  019%=      5-min Rain = 0
KVA1 191756Z 22009KT 23/M02 A3002 RMK A01 T02311021  RH  019%=      5-min Rain = 0
KVA1 191757Z 21012KT 23/M02 A3002 RMK A01 T02311020  RH  019%=      5-min Rain = 0
KVA1 191758Z 21011KT 23/M02 A3002 RMK A01 T02311021  RH  019%=      5-min Rain = 0
KVA1 191759Z 21012KT 23/M02 A3002 RMK A01 T02311021  RH  019%=      5-min Rain = 0
KVA1 191800Z 21012KT 23/M02 A3002 RMK A01 T02311023  RH  018%=      5-min Rain = 0
KVA1 191801Z 21012KT 23/M02 A3002 RMK A01 T02311023  RH  018%=      5-min Rain = 0
KVA1 191802Z 21010KT 23/M02 A3002 RMK A01 T02311024  RH  018%=      5-min Rain = 0
KVA1 191803Z 21010KT 23/M02 A3002 RMK A01 T02311024  RH  018%=      5-min Rain = 0
KVA1 191804Z 22007KT 23/M02 A3002 RMK A01 T02321022  RH  018%=      5-min Rain = 0
KVA1 191805Z 23007KT 24/M02 A3002 RMK A01 T02351022  RH  018%=      5-min Rain = 0
KVA1 191806Z 21009KT 24/M02 A3001 RMK A01 T02361021  RH  018%=      5-min Rain = 0
KVA1 191807Z 20009KT 24/M02 A3001 RMK A01 T02371019  RH  018%=      5-min Rain = 0
KVA1 191808Z 21008KT 24/M02 A3001 RMK A01 T02351021  RH  018%=      5-min Rain = 0
KVA1 191809Z 19007KT 23/M02 A3001 RMK A01 T02341020  RH  018%=      5-min Rain = 0
KVA1 191810Z 20011KT 24/M02 A3001 RMK A01 T02351021  RH  018%=      5-min Rain = 0
KVA1 191811Z 21010KT 24/M02 A3001 RMK A01 T02351022  RH  018%=      5-min Rain = 0
KVA1 191812Z 20008KT 23/M02 A3001 RMK A01 T02341023  RH  018%=      5-min Rain = 0
KVA1 191813Z 20008KT 23/M02 A3001 RMK A01 T02341020  RH  018%=      5-min Rain = 0
KVA1 191814Z 21006KT 24/M02 A3001 RMK A01 T02351020  RH  018%=      5-min Rain = 0
KVA1 191815Z 18009KT 24/M02 A3001 RMK A01 T02351020  RH  018%=      5-min Rain = 0
KVA1 191816Z 19010KT 24/M02 A3001 RMK A01 T02361020  RH  018%=      5-min Rain = 0
KVA1 191817Z 21008KT 24/M02 A3001 RMK A01 T02371020  RH  018%=      5-min Rain = 0
KVA1 191818Z 20008G13KT 24/M02 A3001 RMK A01 T02371021  RH  018%=      5-min Rain = 0
KVA1 191819Z 19009KT 24/M02 A3001 RMK A01 T02371020  RH  018%=      5-min Rain = 0
KVA1 191820Z 18007KT 24/M02 A3001 RMK A01 T02351021  RH  018%=      5-min Rain = 0
KVA1 191821Z 19007KT 24/M02 A3001 RMK A01 T02361019  RH  018%=      5-min Rain = 0
KVA1 191822Z 19006KT 24/M02 A30 RMK A01 T02381019  RH  018%=      5-min Rain = 0
KVA1 191823Z 19008KT 24/M02 A30 RMK A01 T02391020  RH  018%=      5-min Rain = 0
KVA1 191824Z 19006KT 24/M02 A30 RMK A01 T02381021  RH  018%=      5-min Rain = 0
KVA1 191825Z 20008KT 24/M02 A30 RMK A01 T02381017  RH  018%=      5-min Rain = 0
KVA1 191826Z 19009KT 24/M02 A30 RMK A01 T02391019  RH  018%=      5-min Rain = 0
KVA1 191827Z 19009KT 24/M02 A30 RMK A01 T02381019  RH  018%=      5-min Rain = 0
KVA1 191828Z 20009KT 24/M02 A30 RMK A01 T02381018  RH  018%=      5-min Rain = 0
KVA1 191829Z 20009KT 24/M02 A30 RMK A01 T02371018  RH  018%=      5-min Rain = 0
KVA1 191830Z 21008KT 24/M02 A30 RMK A01 T02371018  RH  018%=      5-min Rain = 0
KVA1 191831Z 22006KT 24/M02 A30 RMK A01 T02381018  RH  018%=      5-min Rain = 0
KVA1 191832Z 21005KT 24/M02 A30 RMK A01 T02391020  RH  018%=      5-min Rain = 0
KVA1 191833Z 21007KT 24/M02 A30 RMK A01 T02401018  RH  018%=      5-min Rain = 0
KVA1 191834Z 20007KT 24/M02 A30 RMK A01 T02401018  RH  018%=      5-min Rain = 0
KVA1 191835Z 19009KT 24/M02 A2999 RMK A01 T02421017  RH  018%=      5-min Rain = 0
KVA1 191836Z 19009KT 24/M02 A2999 RMK A01 T02431019  RH  018%=      5-min Rain = 0
KVA1 191837Z 19007KT 24/M02 A2999 RMK A01 T02431019  RH  017%=      5-min Rain = 0
KVA1 191838Z 20008KT 24/M02 A2999 RMK A01 T02431019  RH  017%=      5-min Rain = 0
KVA1 191839Z 19007KT 24/M02 A2999 RMK A01 T02441019  RH  017%=      5-min Rain = 0
KVA1 191840Z 21008KT 24/M02 A2999 RMK A01 T02431020  RH  017%=      5-min Rain = 0
KVA1 191841Z 20007KT 24/M02 A2999 RMK A01 T02431019  RH  018%=      5-min Rain = 0
KVA1 191842Z 20011KT 24/M02 A2999 RMK A01 T02441020  RH  017%=      5-min Rain = 0
KVA1 191843Z 20009KT 24/M02 A2999 RMK A01 T02441021  RH  017%=      5-min Rain = 0
KVA1 191844Z 20007KT 25/M02 A2999 RMK A01 T02461019  RH  017%=      5-min Rain = 0
KVA1 191845Z 20007KT 25/M02 A2999 RMK A01 T02471019  RH  017%=      5-min Rain = 0
KVA1 191846Z 21007KT 25/M02 A2998 RMK A01 T02471020  RH  017%=      5-min Rain = 0
KVA1 191847Z 18007KT 25/M02 A2998 RMK A01 T02471021  RH  017%=      5-min Rain = 0
KVA1 191848Z 17008KT 25/M02 A2998 RMK A01 T02481020  RH  017%=      5-min Rain = 0
KVA1 191849Z 17004KT 25/M02 A2998 RMK A01 T02501022  RH  016%=      5-min Rain = 0
KVA1 191850Z 21003KT 25/M02 A2998 RMK A01 T02491023  RH  016%=      5-min Rain = 0
KVA1 191851Z 20008KT 25/M02 A2998 RMK A01 T02491021  RH  017%=      5-min Rain = 0
KVA1 191852Z 20007KT 25/M02 A2998 RMK A01 T02501020  RH  017%=      5-min Rain = 0
KVA1 191853Z 18008KT 25/M02 A2998 RMK A01 T02521020  RH  017%=      5-min Rain = 0
KVA1 191854Z 19008KT 25/M02 A2998 RMK A01 T02531021  RH  016%=      5-min Rain = 0
KVA1 191855Z 22006KT 25/M02 A2998 RMK A01 T02531020  RH  016%=      5-min Rain = 0
KVA1 191856Z 21003KT 25/M02 A2998 RMK A01 T02541020  RH  016%=      5-min Rain = 0
KVA1 191857Z 23006KT 25/M02 A2998 RMK A01 T02541018  RH  017%=      5-min Rain = 0
KVA1 191858Z 25007KT 26/M02 A2998 RMK A01 T02551018  RH  016%=      5-min Rain = 0
KVA1 191859Z 26008KT 25/M02 A2998 RMK A01 T02541020  RH  016%=      5-min Rain = 0
KVA1 191900Z 27005KT 25/M02 A2998 RMK A01 T02531020  RH  016%=      5-min Rain = 0
KVA1 191901Z 27005KT 25/M02 A2997 RMK A01 T02531019  RH  017%=      5-min Rain = 0
KVA1 191902Z 21007KT 26/M02 A2997 RMK A01 T02551019  RH  016%=      5-min Rain = 0
KVA1 191903Z 21010G17KT 26/M02 A2997 RMK A01 T02561020  RH  016%=      5-min Rain = 0
KVA1 191904Z 23007KT 26/M02 A2997 RMK A01 T02581019  RH  016%=      5-min Rain = 0
KVA1 191905Z 22006KT 26/M02 A2997 RMK A01 T02571023  RH  016%=      5-min Rain = 0
KVA1 191906Z 23002KT 25/M02 A2997 RMK A01 T02541024  RH  016%=      5-min Rain = 0
KVA1 191907Z 21003KT 25/M02 A2997 RMK A01 T02531023  RH  016%=      5-min Rain = 0
KVA1 191908Z 23002KT 25/M02 A2997 RMK A01 T02541022  RH  016%=      5-min Rain = 0
KVA1 191909Z 22005KT 26/M02 A2997 RMK A01 T02561020  RH  016%=      5-min Rain = 0
KVA1 191910Z 24007KT 26/M02 A2997 RMK A01 T02571018  RH  016%=      5-min Rain = 0
KVA1 191911Z 24007KT 26/M02 A2997 RMK A01 T02581017  RH  016%=      5-min Rain = 0
KVA1 191912Z 21008KT 26/M02 A2997 RMK A01 T02591017  RH  016%=      5-min Rain = 0
KVA1 191913Z 20008KT 26/M02 A2997 RMK A01 T02571018  RH  016%=      5-min Rain = 0
KVA1 191914Z 20008KT 25/M02 A2997 RMK A01 T02541019  RH  016%=      5-min Rain = 0
KVA1 191915Z 21007KT 25/M02 A2997 RMK A01 T02531017  RH  017%=      5-min Rain = 0
KVA1 191916Z 21007KT 25/M02 A2997 RMK A01 T02541017  RH  017%=      5-min Rain = 0
KVA1 191917Z 22008KT 26/M02 A2997 RMK A01 T02551018  RH  016%=      5-min Rain = 0
KVA1 191918Z 21011KT 26/M02 A2996 RMK A01 T02551017  RH  017%=      5-min Rain = 0
KVA1 191919Z 21009KT 26/M02 A2996 RMK A01 T02551017  RH  016%=      5-min Rain = 0
KVA1 191920Z 21008KT 26/M02 A2996 RMK A01 T02561016  RH  017%=      5-min Rain = 0
KVA1 191921Z 21005KT 26/M02 A2996 RMK A01 T02561017  RH  016%=      5-min Rain = 0
KVA1 191922Z 22007KT 26/M02 A2996 RMK A01 T02561016  RH  016%=      5-min Rain = 0
KVA1 191923Z 22005KT 26/M02 A2996 RMK A01 T02561019  RH  016%=      5-min Rain = 0
KVA1 191924Z 21008KT 26/M02 A2996 RMK A01 T02551018  RH  016%=      5-min Rain = 0
KVA1 191925Z 22008KT 26/M02 A2996 RMK A01 T02551016  RH  017%=      5-min Rain = 0
KVA1 191926Z 23005KT 25/M02 A2996 RMK A01 T02541016  RH  017%=      5-min Rain = 0
KVA1 191927Z 18006KT 26/M02 A2996 RMK A01 T02551015  RH  017%=      5-min Rain = 0
KVA1 191928Z 17008KT 26/M02 A2996 RMK A01 T02561016  RH  017%=      5-min Rain = 0
KVA1 191929Z 20006KT 26/M02 A2996 RMK A01 T02581015  RH  016%=      5-min Rain = 0
KVA1 191930Z 22007KT 26/M01 A2995 RMK A01 T02601013  RH  017%=      5-min Rain = 0
KVA1 191931Z 20006KT 26/M01 A2995 RMK A01 T02611013  RH  016%=      5-min Rain = 0
KVA1 191932Z 19005KT 26/M01 A2995 RMK A01 T02601014  RH  016%=      5-min Rain = 0
KVA1 191933Z 20004KT 26/M01 A2995 RMK A01 T02591014  RH  017%=      5-min Rain = 0
KVA1 191934Z 22003KT 26/M01 A2995 RMK A01 T02581014  RH  017%=      5-min Rain = 0
KVA1 191935Z 20002KT 26/M01 A2995 RMK A01 T02581014  RH  017%=      5-min Rain = 0
KVA1 191936Z 21005G10KT 26/M01 A2995 RMK A01 T02581013  RH  017%=      5-min Rain = 0
KVA1 191937Z 21010KT 26/M01 A2995 RMK A01 T02601008  RH  017%=      5-min Rain = 0
KVA1 191938Z 21005KT 26/M01 A2995 RMK A01 T02591010  RH  017%=      5-min Rain = 0
KVA1 191939Z 19006KT 26/M01 A2995 RMK A01 T02581007  RH  018%=      5-min Rain = 0
KVA1 191940Z 20009KT 26/M01 A2994 RMK A01 T02611008  RH  017%=      5-min Rain = 0
KVA1 191941Z 20011KT 26/M01 A2994 RMK A01 T02641012  RH  016%=      5-min Rain = 0
KVA1 191942Z 22010KT 26/M01 A2994 RMK A01 T02641012  RH  016%=      5-min Rain = 0
KVA1 191943Z 21010KT 26/M01 A2994 RMK A01 T02611011  RH  017%=      5-min Rain = 0
KVA1 191944Z 20010KT 26/M01 A2994 RMK A01 T02601013  RH  017%=      5-min Rain = 0
KVA1 191945Z 19012KT 26/M01 A2994 RMK A01 T02611011  RH  017%=      5-min Rain = 0
KVA1 191946Z 20014KT 26/M01 A2994 RMK A01 T02631010  RH  017%=      5-min Rain = 0
KVA1 191947Z 20011KT 26/M01 A2994 RMK A01 T02631012  RH  016%=      5-min Rain = 0
KVA1 191948Z 19011KT 26/M01 A2994 RMK A01 T02611012  RH  017%=      5-min Rain = 0
KVA1 191949Z 20012KT 26/M01 A2993 RMK A01 T02601012  RH  017%=      5-min Rain = 0
KVA1 191950Z 21011KT 26/M01 A2993 RMK A01 T02601012  RH  017%=      5-min Rain = 0
KVA1 191951Z 19011KT 26/M01 A2993 RMK A01 T02591011  RH  017%=      5-min Rain = 0
KVA1 191952Z 18011KT 26/M01 A2993 RMK A01 T02591012  RH  017%=      5-min Rain = 0
KVA1 191953Z 20010KT 26/M01 A2993 RMK A01 T02581010  RH  017%=      5-min Rain = 0
KVA1 191954Z 22008KT 26/M01 A2993 RMK A01 T02581008  RH  017%=      5-min Rain = 0
KVA1 191955Z 22011KT 26/M01 A2993 RMK A01 T02591007  RH  017%=      5-min Rain = 0
KVA1 191956Z 21010KT 26/M01 A2993 RMK A01 T02591008  RH  017%=      5-min Rain = 0
KVA1 191957Z 20009KT 26/M01 A2993 RMK A01 T02571010  RH  017%=      5-min Rain = 0
KVA1 191958Z 21009KT 26/M01 A2993 RMK A01 T02551010  RH  017%=      5-min Rain = 0
KVA1 191959Z 22008KT 26/M01 A2993 RMK A01 T02561009  RH  017%=      5-min Rain = 0
KVA1 192000Z 24006KT 26/M01 A2993 RMK A01 T02571009  RH  017%=      5-min Rain = 0
KVA1 192001Z 24005KT 26/M01 A2993 RMK A01 T02581009  RH  017%=      5-min Rain = 0
KVA1 192002Z 22007KT 26/M01 A2993 RMK A01 T02581009  RH  017%=      5-min Rain = 0
KVA1 192003Z 18008KT 26/M01 A2993 RMK A01 T02591010  RH  017%=      5-min Rain = 0
KVA1 192004Z 19006KT 26/M01 A2993 RMK A01 T02591008  RH  017%=      5-min Rain = 0
KVA1 192005Z 21007KT 26/M00 A2993 RMK A01 T02601003  RH  018%=      5-min Rain = 0
KVA1 192006Z 22004KT 26/00 A2992 RMK A01 T02620004  RH  018%=      5-min Rain = 0
KVA1 192007Z 28006KT 26/00 A2993 RMK A01 T02630003  RH  018%=      5-min Rain = 0
KVA1 192008Z 29010KT 26/00 A2992 RMK A01 T02610002  RH  018%=      5-min Rain = 0
KVA1 192009Z 27008KT 26/01 A2993 RMK A01 T02610007  RH  019%=      5-min Rain = 0
KVA1 192010Z 26010KT 26/01 A2993 RMK A01 T02620009  RH  019%=      5-min Rain = 0
KVA1 192011Z 26009KT 26/01 A2993 RMK A01 T02610008  RH  019%=      5-min Rain = 0
KVA1 192012Z 25008KT 26/01 A2993 RMK A01 T02590007  RH  019%=      5-min Rain = 0
KVA1 192013Z 25012KT 26/01 A2993 RMK A01 T02580008  RH  019%=      5-min Rain = 0
KVA1 192014Z 26009KT 26/01 A2993 RMK A01 T02580008  RH  019%=      5-min Rain = 0
KVA1 192015Z 25012KT 26/01 A2993 RMK A01 T02580007  RH  019%=      5-min Rain = 0
KVA1 192016Z 24008KT 26/01 A2993 RMK A01 T02580007  RH  019%=      5-min Rain = 0
KVA1 192017Z 24010KT 26/01 A2993 RMK A01 T02590007  RH  019%=      5-min Rain = 0
KVA1 192018Z 25011KT 26/01 A2993 RMK A01 T02590007  RH  019%=      5-min Rain = 0
KVA1 192019Z 25009KT 26/01 A2993 RMK A01 T02570006  RH  019%=      5-min Rain = 0
KVA1 192020Z 24008KT 26/01 A2993 RMK A01 T02570006  RH  019%=      5-min Rain = 0
KVA1 192021Z 23008KT 26/01 A2993 RMK A01 T02570007  RH  019%=      5-min Rain = 0
KVA1 192022Z 22007KT 26/01 A2993 RMK A01 T02570006  RH  019%=      5-min Rain = 0
KVA1 192023Z 26007KT 26/01 A2992 RMK A01 T02570006  RH  019%=      5-min Rain = 0
KVA1 192024Z 26010KT 26/01 A2992 RMK A01 T02560005  RH  019%=      5-min Rain = 0
KVA1 192025Z 25010KT 26/01 A2992 RMK A01 T02550005  RH  019%=      5-min Rain = 0
KVA1 192026Z 22009KT 25/00 A2992 RMK A01 T02540004  RH  019%=      5-min Rain = 0
KVA1 192027Z 21009KT 25/M01 A2992 RMK A01 T02531005  RH  018%=      5-min Rain = 0
KVA1 192028Z 21007KT 25/M01 A2992 RMK A01 T02511008  RH  018%=      5-min Rain = 0
KVA1 192029Z 20009G20KT 25/M01 A2992 RMK A01 T02501007  RH  018%=      5-min Rain = 0
KVA1 192030Z 23013G22KT 25/M01 A2992 RMK A01 T02511005  RH  019%=      5-min Rain = 0
KVA1 192031Z 23010KT 25/M01 A2992 RMK A01 T02521005  RH  018%=      5-min Rain = 0
KVA1 192032Z 23008KT 25/M01 A2992 RMK A01 T02511007  RH  018%=      5-min Rain = 0
KVA1 192033Z 24007KT 25/M01 A2992 RMK A01 T02511007  RH  018%=      5-min Rain = 0
KVA1 192034Z 24006KT 25/M01 A2992 RMK A01 T02511006  RH  018%=      5-min Rain = 0
KVA1 192035Z 23007KT 25/M01 A2992 RMK A01 T02531005  RH  018%=      5-min Rain = 0
KVA1 192036Z 22010KT 25/M01 A2991 RMK A01 T02541005  RH  018%=      5-min Rain = 0
KVA1 192037Z 22008KT 25/M01 A2991 RMK A01 T02531006  RH  018%=      5-min Rain = 0
KVA1 192038Z 22007KT 25/M01 A2991 RMK A01 T02521006  RH  018%=      5-min Rain = 0
KVA1 192039Z 18006KT 25/M01 A2991 RMK A01 T02521005  RH  018%=      5-min Rain = 0
KVA1 192040Z 21007KT 25/M00 A2991 RMK A01 T02521003  RH  019%=      5-min Rain = 0
KVA1 192041Z 22009KT 25/M00 A2991 RMK A01 T02531003  RH  019%=      5-min Rain = 0
KVA1 192042Z 23008KT 25/M00 A2991 RMK A01 T02541002  RH  019%=      5-min Rain = 0
KVA1 192043Z 26006KT 26/M00 A2991 RMK A01 T02551001  RH  019%=      5-min Rain = 0
KVA1 192044Z 26007KT 25/00 A2991 RMK A01 T02540000  RH  019%=      5-min Rain = 0
KVA1 192045Z 26008KT 26/00 A2991 RMK A01 T02550001  RH  019%=      5-min Rain = 0
KVA1 192046Z 26010KT 26/00 A2991 RMK A01 T02550000  RH  019%=      5-min Rain = 0
KVA1 192047Z 26009KT 26/00 A2991 RMK A01 T025500-0  RH  019%=      5-min Rain = 0
KVA1 192048Z 25008KT 26/00 A2991 RMK A01 T025500-0  RH  019%=      5-min Rain = 0
KVA1 192049Z 26008KT 25/00 A2991 RMK A01 T025400-0  RH  019%=      5-min Rain = 0
KVA1 192050Z 25007KT 25/00 A2991 RMK A01 T02540001  RH  019%=      5-min Rain = 0
KVA1 192051Z 25009KT 26/00 A2991 RMK A01 T02550001  RH  019%=      5-min Rain = 0
KVA1 192052Z 25006KT 26/00 A2991 RMK A01 T02550001  RH  019%=      5-min Rain = 0
KVA1 192053Z 26008KT 26/00 A2991 RMK A01 T02550000  RH  019%=      5-min Rain = 0
KVA1 192054Z 27010KT 25/M00 A2991 RMK A01 T02541001  RH  019%=      5-min Rain = 0
KVA1 192055Z 27009KT 25/M00 A2991 RMK A01 T02541001  RH  019%=      5-min Rain = 0
KVA1 192056Z 27007KT 25/M00 A2991 RMK A01 T02531001  RH  019%=      5-min Rain = 0
KVA1 192057Z 27007KT 25/00 A2991 RMK A01 T02530001  RH  019%=      5-min Rain = 0
KVA1 192058Z 27009KT 25/M00 A2991 RMK A01 T02541003  RH  018%=      5-min Rain = 0
KVA1 192059Z 27007KT 25/M00 A2991 RMK A01 T02531003  RH  019%=      5-min Rain = 0
KVA1 192100Z 28008KT 25/M00 A2991 RMK A01 T02531003  RH  019%=      5-min Rain = 0
KVA1 192101Z 27009KT 25/M01 A2991 RMK A01 T02531005  RH  018%=      5-min Rain = 0
KVA1 192102Z 26007KT 25/M01 A2991 RMK A01 T02531005  RH  018%=      5-min Rain = 0
KVA1 192103Z 25008KT 25/M00 A2991 RMK A01 T02541003  RH  018%=      5-min Rain = 0
KVA1 192104Z 25007KT 26/M00 A2991 RMK A01 T02551003  RH  018%=      5-min Rain = 0
KVA1 192105Z 26007KT 26/M01 A2991 RMK A01 T02571005  RH  018%=      5-min Rain = 0
KVA1 192106Z 26006KT 26/M01 A2991 RMK A01 T02561006  RH  018%=      5-min Rain = 0
KVA1 192107Z 26006KT 26/M01 A299 RMK A01 T02561005  RH  018%=      5-min Rain = 0
KVA1 192108Z 23007KT 26/M00 A299 RMK A01 T02571003  RH  018%=      5-min Rain = 0
KVA1 192109Z 22006KT 26/00 A299 RMK A01 T02580000  RH  018%=      5-min Rain = 0
KVA1 192110Z 23004KT 26/00 A299 RMK A01 T02590003  RH  019%=      5-min Rain = 0
KVA1 192111Z 22007KT 26/00 A299 RMK A01 T02600003  RH  019%=      5-min Rain = 0
KVA1 192112Z 21007KT 26/00 A299 RMK A01 T02600002  RH  018%=      5-min Rain = 0
KVA1 192113Z 22007KT 26/00 A299 RMK A01 T025900-0  RH  018%=      5-min Rain = 0
KVA1 192114Z 22008KT 26/00 A299 RMK A01 T025800-0  RH  018%=      5-min Rain = 0
KVA1 192115Z 23008KT 26/M00 A299 RMK A01 T02571001  RH  018%=      5-min Rain = 0
KVA1 192116Z 24009KT 26/M00 A299 RMK A01 T02561004  RH  018%=      5-min Rain = 0
KVA1 192117Z 22009KT 26/M00 A299 RMK A01 T02561004  RH  018%=      5-min Rain = 0
KVA1 192118Z 22009KT 26/M01 A299 RMK A01 T02561005  RH  018%=      5-min Rain = 0
KVA1 192119Z 23009KT 26/M01 A299 RMK A01 T02561005  RH  018%=      5-min Rain = 0
KVA1 192120Z 24008KT 26/M00 A299 RMK A01 T02561004  RH  018%=      5-min Rain = 0
KVA1 192121Z 25008KT 26/M00 A299 RMK A01 T02561002  RH  018%=      5-min Rain = 0
KVA1 192122Z 24007KT 26/M00 A299 RMK A01 T02571001  RH  018%=      5-min Rain = 0
KVA1 192123Z 23009KT 26/M00 A299 RMK A01 T02591001  RH  018%=      5-min Rain = 0
KVA1 192124Z 23008KT 26/M00 A299 RMK A01 T02591003  RH  018%=      5-min Rain = 0
KVA1 192125Z 24008KT 26/M00 A299 RMK A01 T02601002  RH  018%=      5-min Rain = 0
KVA1 192126Z 24008KT 26/M00 A299 RMK A01 T02611002  RH  018%=      5-min Rain = 0
KVA1 192127Z 23009KT 26/M00 A299 RMK A01 T02621002  RH  018%=      5-min Rain = 0
KVA1 192128Z 24010KT 26/M00 A299 RMK A01 T02621004  RH  017%=      5-min Rain = 0
KVA1 192129Z 23010KT 26/M01 A299 RMK A01 T02621006  RH  017%=      5-min Rain = 0
KVA1 192130Z 25008KT 26/M01 A299 RMK A01 T02621006  RH  017%=      5-min Rain = 0
KVA1 192131Z 24010KT 26/M01 A299 RMK A01 T02621005  RH  017%=      5-min Rain = 0
KVA1 192132Z 23009KT 26/M01 A299 RMK A01 T02631005  RH  017%=      5-min Rain = 0
KVA1 192133Z 24008KT 26/M01 A299 RMK A01 T02631005  RH  017%=      5-min Rain = 0
KVA1 192134Z 25008G14KT 26/M00 A299 RMK A01 T02631003  RH  017%=      5-min Rain = 0
KVA1 192135Z 23009KT 26/M00 A299 RMK A01 T02631003  RH  018%=      5-min Rain = 0
KVA1 192136Z 24011KT 26/M00 A299 RMK A01 T02611003  RH  018%=      5-min Rain = 0
KVA1 192137Z 24009KT 26/M00 A299 RMK A01 T02601003  RH  018%=      5-min Rain = 0
KVA1 192138Z 24011KT 26/M00 A299 RMK A01 T02601003  RH  018%=      5-min Rain = 0
KVA1 192139Z 23008KT 26/M00 A299 RMK A01 T02601003  RH  018%=      5-min Rain = 0
KVA1 192140Z 22006KT 26/M00 A299 RMK A01 T02601002  RH  018%=      5-min Rain = 0
KVA1 192141Z 22009KT 26/M00 A299 RMK A01 T02621002  RH  018%=      5-min Rain = 0
KVA1 192142Z 23009KT 26/M00 A299 RMK A01 T02621002  RH  018%=      5-min Rain = 0
KVA1 192143Z 24007G12KT 26/M00 A299 RMK A01 T02621003  RH  018%=      5-min Rain = 0
KVA1 192144Z 22010KT 26/M00 A299 RMK A01 T02621001  RH  018%=      5-min Rain = 0
KVA1 192145Z 22010KT 26/00 A299 RMK A01 T026300-0  RH  018%=      5-min Rain = 0
KVA1 192146Z 21010KT 26/00 A299 RMK A01 T02630001  RH  018%=      5-min Rain = 0
KVA1 192147Z 22009KT 26/00 A299 RMK A01 T026200-0  RH  018%=      5-min Rain = 0
KVA1 192148Z 20012KT 26/M00 A299 RMK A01 T02621001  RH  018%=      5-min Rain = 0
KVA1 192149Z 20012KT 26/M00 A299 RMK A01 T02601001  RH  018%=      5-min Rain = 0
KVA1 192150Z 20010KT 26/M00 A299 RMK A01 T02591001  RH  018%=      5-min Rain = 0
KVA1 192151Z 21009KT 26/00 A299 RMK A01 T026000-0  RH  018%=      5-min Rain = 0
KVA1 192152Z 21007KT 26/00 A299 RMK A01 T02610002  RH  018%=      5-min Rain = 0
KVA1 192153Z 20010KT 26/00 A299 RMK A01 T02640002  RH  018%=      5-min Rain = 0
KVA1 192154Z 21009KT 26/00 A299 RMK A01 T02630002  RH  018%=      5-min Rain = 0
KVA1 192155Z 21007KT 26/00 A299 RMK A01 T02640003  RH  018%=      5-min Rain = 0
KVA1 192156Z 21008KT 26/00 A2989 RMK A01 T02640003  RH  018%=      5-min Rain = 0
KVA1 192157Z 21008KT 26/00 A2989 RMK A01 T02640002  RH  018%=      5-min Rain = 0
KVA1 192158Z 21006KT 26/00 A2989 RMK A01 T02630003  RH  018%=      5-min Rain = 0
KVA1 192159Z 22006KT 26/00 A2989 RMK A01 T02630003  RH  018%=      5-min Rain = 0
KVA1 192200Z 22008KT 27/00 A2989 RMK A01 T02650004  RH  018%=      5-min Rain = 0
KVA1 192201Z 20007KT 26/00 A2989 RMK A01 T02630002  RH  018%=      5-min Rain = 0
KVA1 192202Z 21008KT 26/00 A2989 RMK A01 T02630003  RH  018%=      5-min Rain = 0
KVA1 192203Z 21007KT 26/00 A2989 RMK A01 T02630003  RH  018%=      5-min Rain = 0
KVA1 192204Z 21008KT 26/00 A2989 RMK A01 T02630003  RH  018%=      5-min Rain = 0
KVA1 192205Z 21008KT 26/00 A2989 RMK A01 T02620003  RH  018%=      5-min Rain = 0
KVA1 192206Z 22008KT 26/00 A2989 RMK A01 T02610002  RH  018%=      5-min Rain = 0
KVA1 192207Z 21008KT 26/00 A2989 RMK A01 T02600002  RH  018%=      5-min Rain = 0
KVA1 192208Z 21010KT 26/00 A2989 RMK A01 T02600003  RH  019%=      5-min Rain = 0
KVA1 192209Z 21009KT 26/00 A2989 RMK A01 T02600003  RH  019%=      5-min Rain = 0
KVA1 192210Z 21008KT 26/00 A2989 RMK A01 T02590003  RH  019%=      5-min Rain = 0
KVA1 192211Z 22006KT 26/00 A2989 RMK A01 T02590003  RH  019%=      5-min Rain = 0
KVA1 192212Z 21005KT 26/00 A2989 RMK A01 T02600004  RH  019%=      5-min Rain = 0
KVA1 192213Z 22007KT 26/01 A2989 RMK A01 T02620005  RH  019%=      5-min Rain = 0
KVA1 192214Z 22007KT 26/00 A2989 RMK A01 T02620004  RH  018%=      5-min Rain = 0
KVA1 192215Z 22009KT 26/00 A2989 RMK A01 T02610003  RH  018%=      5-min Rain = 0
KVA1 192216Z 22009KT 26/00 A2989 RMK A01 T02610004  RH  019%=      5-min Rain = 0
KVA1 192217Z 22009KT 26/00 A2989 RMK A01 T02600004  RH  019%=      5-min Rain = 0
KVA1 192218Z 22008KT 26/00 A2989 RMK A01 T02610004  RH  019%=      5-min Rain = 0
KVA1 192219Z 22009KT 26/00 A2989 RMK A01 T02610004  RH  019%=      5-min Rain = 0
KVA1 192220Z 21010KT 26/01 A2989 RMK A01 T02610005  RH  019%=      5-min Rain = 0
KVA1 192221Z 21009KT 26/00 A2989 RMK A01 T02590003  RH  019%=      5-min Rain = 0
KVA1 192222Z 21009KT 26/00 A2989 RMK A01 T02570003  RH  019%=      5-min Rain = 0
KVA1 192223Z 23007KT 26/01 A2989 RMK A01 T02560005  RH  019%=      5-min Rain = 0
KVA1 192224Z 23010KT 26/01 A2989 RMK A01 T02580005  RH  019%=      5-min Rain = 0
KVA1 192225Z 23008KT 26/00 A2989 RMK A01 T02580004  RH  019%=      5-min Rain = 0
KVA1 192226Z 23009KT 26/01 A2989 RMK A01 T02580005  RH  019%=      5-min Rain = 0
KVA1 192227Z 22009KT 26/01 A2989 RMK A01 T02570005  RH  019%=      5-min Rain = 0
KVA1 192228Z 22010KT 26/01 A2989 RMK A01 T02570005  RH  019%=      5-min Rain = 0
KVA1 192229Z 22010KT 26/01 A2989 RMK A01 T02570005  RH  019%=      5-min Rain = 0
KVA1 192230Z 22010KT 26/01 A2989 RMK A01 T02560005  RH  019%=      5-min Rain = 0
KVA1 192231Z 22010KT 26/01 A2989 RMK A01 T02560006  RH  019%=      5-min Rain = 0
KVA1 192232Z 22011KT 26/01 A2989 RMK A01 T02560005  RH  019%=      5-min Rain = 0
KVA1 192233Z 22010KT 26/01 A2989 RMK A01 T02550005  RH  019%=      5-min Rain = 0
KVA1 192234Z 21012KT 26/01 A2989 RMK A01 T02550006  RH  019%=      5-min Rain = 0
KVA1 192235Z 21012KT 26/01 A2989 RMK A01 T02560006  RH  019%=      5-min Rain = 0
KVA1 192236Z 21009KT 26/01 A2989 RMK A01 T02560006  RH  019%=      5-min Rain = 0
KVA1 192237Z 22011KT 26/01 A2989 RMK A01 T02570006  RH  019%=      5-min Rain = 0
KVA1 192238Z 21011KT 26/01 A2989 RMK A01 T02580005  RH  019%=      5-min Rain = 0
KVA1 192239Z 22010KT 26/01 A2989 RMK A01 T02580006  RH  019%=      5-min Rain = 0
KVA1 192240Z 21012KT 26/01 A2989 RMK A01 T02580007  RH  019%=      5-min Rain = 0
KVA1 192241Z 21011KT 26/01 A2989 RMK A01 T02570008  RH  020%=      5-min Rain = 0
KVA1 192242Z 21010KT 26/01 A2989 RMK A01 T02570009  RH  020%=      5-min Rain = 0
KVA1 192243Z 22010KT 26/01 A2989 RMK A01 T02560009  RH  020%=      5-min Rain = 0
KVA1 192244Z 22009KT 26/01 A2989 RMK A01 T02560009  RH  020%=      5-min Rain = 0
KVA1 192245Z 22011KT 26/01 A2989 RMK A01 T02560010  RH  020%=      5-min Rain = 0
KVA1 192246Z 21009KT 26/01 A2989 RMK A01 T02550010  RH  020%=      5-min Rain = 0
KVA1 192247Z 20010KT 26/01 A2989 RMK A01 T02550010  RH  020%=      5-min Rain = 0
KVA1 192248Z 21009KT 26/01 A2989 RMK A01 T02550010  RH  020%=      5-min Rain = 0
KVA1 192249Z 20011KT 25/01 A2989 RMK A01 T02540009  RH  020%=      5-min Rain = 0
KVA1 192250Z 21013KT 25/01 A2989 RMK A01 T02540008  RH  020%=      5-min Rain = 0
KVA1 192251Z 21012KT 25/01 A2989 RMK A01 T02530008  RH  020%=      5-min Rain = 0
KVA1 192252Z 22009KT 25/01 A2989 RMK A01 T02530009  RH  020%=      5-min Rain = 0
KVA1 192253Z 21010KT 25/01 A2989 RMK A01 T02540010  RH  020%=      5-min Rain = 0
KVA1 192254Z 21011KT 25/01 A2989 RMK A01 T02540010  RH  020%=      5-min Rain = 0
KVA1 192255Z 21011KT 25/01 A2989 RMK A01 T02540010  RH  020%=      5-min Rain = 0
KVA1 192256Z 21009KT 25/01 A2989 RMK A01 T02530010  RH  020%=      5-min Rain = 0
KVA1 192257Z 22009KT 25/01 A2989 RMK A01 T02530010  RH  020%=      5-min Rain = 0
KVA1 192258Z 22011KT 25/01 A2989 RMK A01 T02540010  RH  020%=      5-min Rain = 0
KVA1 192259Z 22010KT 25/01 A2989 RMK A01 T02540010  RH  020%=      5-min Rain = 0
KVA1 192300Z 23009KT 25/01 A2989 RMK A01 T02530011  RH  021%=      5-min Rain = 0
KVA1 192301Z 22009KT 25/01 A2989 RMK A01 T02520011  RH  021%=      5-min Rain = 0
KVA1 192302Z 21009KT 25/01 A2989 RMK A01 T02510011  RH  021%=      5-min Rain = 0
KVA1 192303Z 21008KT 25/01 A2989 RMK A01 T02510011  RH  021%=      5-min Rain = 0
KVA1 192304Z 21008KT 25/01 A2989 RMK A01 T02510012  RH  021%=      5-min Rain = 0
KVA1 192305Z 20009KT 25/01 A2989 RMK A01 T02510012  RH  021%=      5-min Rain = 0
KVA1 192306Z 21010KT 25/01 A2989 RMK A01 T02500013  RH  021%=      5-min Rain = 0
KVA1 192307Z 21008KT 25/01 A2989 RMK A01 T02500014  RH  021%=      5-min Rain = 0
KVA1 192308Z 22008KT 25/01 A2989 RMK A01 T02490013  RH  021%=      5-min Rain = 0
KVA1 192309Z 22008KT 25/01 A2989 RMK A01 T02490014  RH  021%=      5-min Rain = 0
KVA1 192310Z 21009KT 25/01 A2989 RMK A01 T02490014  RH  021%=      5-min Rain = 0
KVA1 192311Z 20009KT 25/01 A2989 RMK A01 T02480013  RH  021%=      5-min Rain = 0
KVA1 192312Z 20010KT 25/01 A2989 RMK A01 T02480013  RH  021%=      5-min Rain = 0
KVA1 192313Z 21009KT 25/01 A2989 RMK A01 T02470014  RH  022%=      5-min Rain = 0
KVA1 192314Z 20010KT 25/01 A2989 RMK A01 T02470014  RH  022%=      5-min Rain = 0
KVA1 192315Z 20009KT 25/01 A2989 RMK A01 T02470014  RH  022%=      5-min Rain = 0
KVA1 192316Z 20009KT 25/01 A2989 RMK A01 T02460014  RH  022%=      5-min Rain = 0
KVA1 192317Z 20008KT 25/01 A2989 RMK A01 T02450014  RH  022%=      5-min Rain = 0
KVA1 192318Z 20008KT 25/01 A2989 RMK A01 T02450014  RH  022%=      5-min Rain = 0
KVA1 192319Z 20009KT 24/02 A2989 RMK A01 T02440015  RH  022%=      5-min Rain = 0
KVA1 192320Z 21009KT 24/02 A2989 RMK A01 T02440015  RH  022%=      5-min Rain = 0
KVA1 192321Z 20007KT 24/02 A2989 RMK A01 T02440015  RH  022%=      5-min Rain = 0
KVA1 192322Z 20008KT 24/02 A2989 RMK A01 T02430015  RH  022%=      5-min Rain = 0
KVA1 192323Z 20008KT 24/02 A2989 RMK A01 T02430015  RH  022%=      5-min Rain = 0
KVA1 192324Z 20009KT 24/02 A2989 RMK A01 T02430015  RH  022%=      5-min Rain = 0
KVA1 192325Z 19007KT 24/02 A2989 RMK A01 T02420015  RH  022%=      5-min Rain = 0
KVA1 192326Z 20007KT 24/01 A2989 RMK A01 T02420014  RH  022%=      5-min Rain = 0
KVA1 192327Z 20006KT 24/02 A2989 RMK A01 T02410015  RH  023%=      5-min Rain = 0
KVA1 192328Z 19008KT 24/02 A2989 RMK A01 T02410015  RH  023%=      5-min Rain = 0
KVA1 192329Z 20006KT 24/02 A2989 RMK A01 T02410015  RH  023%=      5-min Rain = 0
KVA1 192330Z 19007KT 24/01 A2989 RMK A01 T02400014  RH  023%=      5-min Rain = 0
KVA1 192331Z 20006KT 24/01 A2989 RMK A01 T02400014  RH  023%=      5-min Rain = 0
KVA1 192332Z 19007KT 24/01 A2989 RMK A01 T02390014  RH  023%=      5-min Rain = 0
KVA1 192333Z 20006KT 24/01 A2989 RMK A01 T02380014  RH  023%=      5-min Rain = 0
KVA1 192334Z 19007KT 24/01 A2989 RMK A01 T02380014  RH  023%=      5-min Rain = 0
KVA1 192335Z 20007KT 24/01 A2989 RMK A01 T02380014  RH  023%=      5-min Rain = 0
KVA1 192336Z 19007KT 24/01 A2989 RMK A01 T02380014  RH  023%=      5-min Rain = 0
KVA1 192337Z 20007KT 24/01 A2989 RMK A01 T02370014  RH  023%=      5-min Rain = 0
KVA1 192338Z 20005KT 24/01 A2989 RMK A01 T02370014  RH  023%=      5-min Rain = 0
KVA1 192339Z 20006KT 24/01 A2989 RMK A01 T02370014  RH  023%=      5-min Rain = 0
KVA1 192340Z 19006KT 24/01 A2989 RMK A01 T02360013  RH  023%=      5-min Rain = 0
KVA1 192341Z 19006KT 24/01 A2989 RMK A01 T02350013  RH  023%=      5-min Rain = 0
KVA1 192342Z 19006KT 24/01 A2989 RMK A01 T02350014  RH  023%=      5-min Rain = 0
KVA1 192343Z 19006KT 24/01 A2989 RMK A01 T02350013  RH  023%=      5-min Rain = 0
KVA1 192344Z 19006KT 23/01 A2989 RMK A01 T02340013  RH  023%=      5-min Rain = 0
KVA1 192345Z 20006KT 23/01 A2989 RMK A01 T02340014  RH  023%=      5-min Rain = 0
KVA1 192346Z 20007KT 23/01 A2989 RMK A01 T02330013  RH  023%=      5-min Rain = 0
KVA1 192347Z 20006KT 23/01 A2989 RMK A01 T02330013  RH  023%=      5-min Rain = 0
KVA1 192348Z 20006KT 23/01 A2989 RMK A01 T02330013  RH  024%=      5-min Rain = 0
KVA1 192349Z 20006KT 23/01 A2989 RMK A01 T02320013  RH  024%=      5-min Rain = 0
KVA1 192350Z 20006KT 23/01 A2989 RMK A01 T02310013  RH  024%=      5-min Rain = 0
KVA1 192351Z 20006KT 23/01 A2989 RMK A01 T02300012  RH  024%=      5-min Rain = 0
KVA1 192352Z 20006KT 23/01 A2989 RMK A01 T02300013  RH  024%=      5-min Rain = 0
KVA1 192353Z 20006KT 23/01 A2989 RMK A01 T02300012  RH  024%=      5-min Rain = 0
KVA1 192354Z 20006KT 23/01 A2989 RMK A01 T02290013  RH  024%=      5-min Rain = 0
KVA1 192355Z 20006KT 23/01 A2989 RMK A01 T02290013  RH  024%=      5-min Rain = 0
KVA1 192356Z 19006KT 23/01 A2989 RMK A01 T02290012  RH  024%=      5-min Rain = 0
KVA1 192357Z 20006KT 23/01 A2989 RMK A01 T02290013  RH  024%=      5-min Rain = 0
KVA1 192358Z 20006KT 23/01 A2989 RMK A01 T02280013  RH  024%=      5-min Rain = 0
KVA1 192359Z 20006KT 23/01 A2989 RMK A01 T02280012  RH  024%=      5-min Rain = 0
KVA1 200000Z 20006KT 23/01 A2989 RMK A01 T02270012  RH  024%=      5-min Rain = 0
KVA1 200001Z 21007KT 23/01 A2989 RMK A01 T02260012  RH  024%=      5-min Rain = 0
KVA1 200002Z 21006KT 23/01 A2989 RMK A01 T02260012  RH  024%=      5-min Rain = 0
KVA1 200003Z 21006KT 23/01 A2989 RMK A01 T02250012  RH  025%=      5-min Rain = 0
KVA1 200004Z 21005KT 22/01 A2989 RMK A01 T02240012  RH  025%=      5-min Rain = 0
KVA1 200005Z 21006KT 22/01 A2989 RMK A01 T02230012  RH  025%=      5-min Rain = 0
KVA1 200006Z 21006KT 22/01 A2989 RMK A01 T02230012  RH  025%=      5-min Rain = 0
KVA1 200007Z 21006KT 22/01 A2989 RMK A01 T02220012  RH  025%=      5-min Rain = 0
KVA1 200008Z 21006KT 22/01 A2989 RMK A01 T02220012  RH  025%=      5-min Rain = 0
KVA1 200009Z 21005KT 22/01 A2989 RMK A01 T02210012  RH  025%=      5-min Rain = 0
KVA1 200010Z 21005KT 22/01 A2989 RMK A01 T02200012  RH  025%=      5-min Rain = 0
KVA1 200011Z 20005KT 22/01 A2989 RMK A01 T02200012  RH  025%=      5-min Rain = 0
KVA1 200012Z 20005KT 22/01 A2989 RMK A01 T02190012  RH  025%=      5-min Rain = 0
KVA1 200013Z 21005KT 22/01 A2989 RMK A01 T02180012  RH  025%=      5-min Rain = 0
KVA1 200014Z 21005KT 22/01 A2989 RMK A01 T02180012  RH  026%=      5-min Rain = 0
KVA1 200015Z 21005KT 22/01 A2989 RMK A01 T02170012  RH  026%=      5-min Rain = 0
KVA1 200016Z 21005KT 22/01 A2989 RMK A01 T02160012  RH  026%=      5-min Rain = 0
KVA1 200017Z 21005KT 22/01 A2989 RMK A01 T02150012  RH  026%=      5-min Rain = 0
KVA1 200018Z 21005KT 22/01 A2989 RMK A01 T02150012  RH  026%=      5-min Rain = 0
KVA1 200019Z 20005KT 21/01 A2989 RMK A01 T02140012  RH  026%=      5-min Rain = 0
KVA1 200020Z 20005KT 21/01 A2989 RMK A01 T02130012  RH  026%=      5-min Rain = 0
KVA1 200021Z 19005KT 21/01 A2989 RMK A01 T02130012  RH  026%=      5-min Rain = 0
KVA1 200022Z 19006KT 21/01 A2989 RMK A01 T02130012  RH  026%=      5-min Rain = 0
KVA1 200023Z 19006KT 21/01 A2989 RMK A01 T02130012  RH  026%=      5-min Rain = 0
KVA1 200024Z 19005KT 21/01 A2989 RMK A01 T02130011  RH  026%=      5-min Rain = 0
KVA1 200025Z 19005KT 21/01 A2989 RMK A01 T02130011  RH  026%=      5-min Rain = 0
KVA1 200026Z 19005KT 21/01 A2989 RMK A01 T02130011  RH  026%=      5-min Rain = 0
KVA1 200027Z 19005KT 21/01 A2989 RMK A01 T02140012  RH  026%=      5-min Rain = 0
KVA1 200028Z 19005KT 21/01 A2989 RMK A01 T02130011  RH  026%=      5-min Rain = 0
KVA1 200029Z 19005KT 21/01 A2989 RMK A01 T02130011  RH  026%=      5-min Rain = 0
KVA1 200030Z 18005KT 21/01 A2989 RMK A01 T02120011  RH  026%=      5-min Rain = 0
KVA1 200031Z 18005KT 21/01 A2989 RMK A01 T02120011  RH  026%=      5-min Rain = 0
KVA1 200032Z 18004KT 21/01 A2989 RMK A01 T02110011  RH  026%=      5-min Rain = 0
KVA1 200033Z 18004KT 21/01 A2989 RMK A01 T02100011  RH  027%=      5-min Rain = 0
KVA1 200034Z 19004KT 21/01 A2989 RMK A01 T02090011  RH  027%=      5-min Rain = 0
KVA1 200035Z 19003KT 21/01 A2989 RMK A01 T02090011  RH  027%=      5-min Rain = 0
KVA1 200036Z 19004KT 21/01 A2989 RMK A01 T02080011  RH  027%=      5-min Rain = 0
KVA1 200037Z 19004KT 21/01 A2989 RMK A01 T02080011  RH  027%=      5-min Rain = 0
KVA1 200038Z 19004KT 21/01 A2989 RMK A01 T02070010  RH  027%=      5-min Rain = 0
KVA1 200039Z 19004KT 21/01 A2989 RMK A01 T02070011  RH  027%=      5-min Rain = 0
KVA1 200040Z 19004KT 21/01 A2989 RMK A01 T02070011  RH  027%=      5-min Rain = 0
KVA1 200041Z 19004KT 21/01 A2989 RMK A01 T02070011  RH  027%=      5-min Rain = 0
KVA1 200042Z 20004KT 21/01 A2989 RMK A01 T02070010  RH  027%=      5-min Rain = 0
KVA1 200043Z 20004KT 21/01 A2989 RMK A01 T02070010  RH  027%=      5-min Rain = 0
KVA1 200044Z 21004KT 21/01 A299 RMK A01 T02060010  RH  027%=      5-min Rain = 0
KVA1 200045Z 22003KT 20/01 A299 RMK A01 T02040010  RH  027%=      5-min Rain = 0
KVA1 200046Z 22003KT 20/01 A299 RMK A01 T02020009  RH  028%=      5-min Rain = 0
KVA1 200047Z 22003KT 20/01 A299 RMK A01 T02000009  RH  028%=      5-min Rain = 0
KVA1 200048Z 21003KT 20/01 A299 RMK A01 T01980009  RH  028%=      5-min Rain = 0
KVA1 200049Z 22003KT 20/01 A299 RMK A01 T01960009  RH  028%=      5-min Rain = 0
KVA1 200050Z 22003KT 20/01 A299 RMK A01 T01950009  RH  029%=      5-min Rain = 0
KVA1 200051Z 23004KT 19/01 A299 RMK A01 T01930008  RH  029%=      5-min Rain = 0
KVA1 200052Z 23004KT 19/01 A299 RMK A01 T01920009  RH  029%=      5-min Rain = 0
KVA1 200053Z 23004KT 19/01 A299 RMK A01 T01910008  RH  029%=      5-min Rain = 0
KVA1 200054Z 23004KT 19/01 A299 RMK A01 T01900008  RH  030%=      5-min Rain = 0
KVA1 200055Z 23005KT 19/01 A299 RMK A01 T01890008  RH  030%=      5-min Rain = 0
KVA1 200056Z 23004KT 19/01 A299 RMK A01 T01880008  RH  030%=      5-min Rain = 0
KVA1 200057Z 23005KT 19/01 A299 RMK A01 T01870008  RH  030%=      5-min Rain = 0
KVA1 200058Z 24005KT 19/01 A299 RMK A01 T01860008  RH  030%=      5-min Rain = 0
KVA1 200059Z 24004KT 18/01 A299 RMK A01 T01840007  RH  030%=      5-min Rain = 0
KVA1 200100Z 24004KT 18/01 A299 RMK A01 T01840007  RH  030%=      5-min Rain = 0
KVA1 200101Z 24004KT 18/01 A299 RMK A01 T01830007  RH  031%=      5-min Rain = 0
KVA1 200102Z 25005KT 18/01 A299 RMK A01 T01830007  RH  031%=      5-min Rain = 0
KVA1 200103Z 25005KT 18/01 A299 RMK A01 T01830008  RH  031%=      5-min Rain = 0
KVA1 200104Z 26005KT 18/01 A299 RMK A01 T01820007  RH  031%=      5-min Rain = 0
KVA1 200105Z 26005KT 18/01 A299 RMK A01 T01820008  RH  031%=      5-min Rain = 0
KVA1 200106Z 26005KT 18/01 A299 RMK A01 T01820008  RH  031%=      5-min Rain = 0
KVA1 200107Z 26005KT 18/01 A299 RMK A01 T01810008  RH  031%=      5-min Rain = 0
KVA1 200108Z 26005KT 18/01 A299 RMK A01 T01810008  RH  031%=      5-min Rain = 0
KVA1 200109Z 26004KT 18/01 A299 RMK A01 T01810008  RH  031%=      5-min Rain = 0
KVA1 200110Z 26005KT 18/01 A299 RMK A01 T01810008  RH  031%=      5-min Rain = 0
KVA1 200111Z 26005KT 18/01 A299 RMK A01 T01810008  RH  031%=      5-min Rain = 0
KVA1 200112Z 26004KT 18/01 A299 RMK A01 T01810008  RH  031%=      5-min Rain = 0
KVA1 200113Z 26005KT 18/01 A299 RMK A01 T01810008  RH  031%=      5-min Rain = 0
KVA1 200114Z 26005KT 18/01 A299 RMK A01 T01810008  RH  031%=      5-min Rain = 0
KVA1 200115Z 25005KT 18/01 A299 RMK A01 T01810008  RH  031%=      5-min Rain = 0
KVA1 200116Z 25005KT 18/01 A299 RMK A01 T01800007  RH  031%=      5-min Rain = 0
KVA1 200117Z 25005KT 18/01 A299 RMK A01 T01800007  RH  031%=      5-min Rain = 0
KVA1 200118Z 24006KT 18/01 A299 RMK A01 T01800007  RH  031%=      5-min Rain = 0
KVA1 200119Z 24006KT 18/01 A299 RMK A01 T01800007  RH  031%=      5-min Rain = 0
KVA1 200120Z 24005KT 18/01 A299 RMK A01 T01800008  RH  031%=      5-min Rain = 0
KVA1 200121Z 24005KT 18/01 A299 RMK A01 T01800008  RH  031%=      5-min Rain = 0
KVA1 200122Z 24005KT 18/01 A299 RMK A01 T01800008  RH  031%=      5-min Rain = 0
KVA1 200123Z 24005KT 18/01 A299 RMK A01 T01810009  RH  031%=      5-min Rain = 0
KVA1 200124Z 24005KT 18/01 A299 RMK A01 T01830010  RH  031%=      5-min Rain = 0
KVA1 200125Z 24005KT 18/01 A2991 RMK A01 T01830010  RH  031%=      5-min Rain = 0
KVA1 200126Z 24006KT 18/01 A2991 RMK A01 T01830010  RH  031%=      5-min Rain = 0
KVA1 200127Z 24006KT 19/01 A2991 RMK A01 T01850011  RH  031%=      5-min Rain = 0
KVA1 200128Z 23006KT 19/01 A2991 RMK A01 T01870011  RH  031%=      5-min Rain = 0
KVA1 200129Z 23006KT 19/01 A2991 RMK A01 T01880011  RH  031%=      5-min Rain = 0
KVA1 200130Z 24006KT 19/01 A2991 RMK A01 T01890011  RH  030%=      5-min Rain = 0
KVA1 200131Z 24006KT 19/01 A2991 RMK A01 T01890011  RH  030%=      5-min Rain = 0
KVA1 200132Z 24006KT 19/01 A2991 RMK A01 T01900011  RH  030%=      5-min Rain = 0
KVA1 200133Z 24006KT 19/01 A2991 RMK A01 T01890010  RH  030%=      5-min Rain = 0
KVA1 200134Z 24005KT 19/01 A2991 RMK A01 T01890011  RH  030%=      5-min Rain = 0
KVA1 200135Z 23006KT 19/01 A2991 RMK A01 T01890011  RH  030%=      5-min Rain = 0
KVA1 200136Z 24006KT 19/01 A2991 RMK A01 T01890011  RH  030%=      5-min Rain = 0
KVA1 200137Z 24006KT 19/01 A2991 RMK A01 T01890010  RH  030%=      5-min Rain = 0
KVA1 200138Z 25006KT 19/01 A2991 RMK A01 T01890011  RH  030%=      5-min Rain = 0
KVA1 200139Z 24005KT 19/01 A2991 RMK A01 T01900011  RH  030%=      5-min Rain = 0
KVA1 200140Z 24006KT 19/01 A2991 RMK A01 T01890010  RH  030%=      5-min Rain = 0
KVA1 200141Z 24006KT 19/01 A2991 RMK A01 T01890010  RH  030%=      5-min Rain = 0
KVA1 200142Z 24005KT 19/01 A2991 RMK A01 T01890010  RH  030%=      5-min Rain = 0
KVA1 200143Z 24005KT 19/01 A2991 RMK A01 T01900011  RH  030%=      5-min Rain = 0
KVA1 200144Z 24005KT 19/01 A299 RMK A01 T01900011  RH  030%=      5-min Rain = 0
KVA1 200145Z 24005KT 19/01 A299 RMK A01 T01890010  RH  030%=      5-min Rain = 0
KVA1 200146Z 24006KT 19/01 A299 RMK A01 T01890010  RH  030%=      5-min Rain = 0
KVA1 200147Z 24006KT 19/01 A2991 RMK A01 T01880010  RH  030%=      5-min Rain = 0
KVA1 200148Z 24005KT 19/01 A2991 RMK A01 T01870010  RH  030%=      5-min Rain = 0
KVA1 200149Z 24005KT 19/01 A2991 RMK A01 T01870010  RH  031%=      5-min Rain = 0
KVA1 200150Z 24005KT 19/01 A2991 RMK A01 T01860010  RH  031%=      5-min Rain = 0
KVA1 200151Z 24005KT 19/01 A2991 RMK A01 T01850010  RH  031%=      5-min Rain = 0
KVA1 200152Z 24005KT 19/01 A2991 RMK A01 T01850010  RH  031%=      5-min Rain = 0
KVA1 200153Z 24005KT 19/01 A2991 RMK A01 T01850010  RH  031%=      5-min Rain = 0
KVA1 200154Z 24005KT 18/01 A2991 RMK A01 T01840010  RH  031%=      5-min Rain = 0
KVA1 200155Z 24005KT 18/01 A2991 RMK A01 T01840009  RH  031%=      5-min Rain = 0
KVA1 200156Z 24005KT 18/01 A2991 RMK A01 T01840009  RH  031%=      5-min Rain = 0
KVA1 200157Z 24005KT 18/01 A2991 RMK A01 T01830009  RH  031%=      5-min Rain = 0
KVA1 200158Z 25005KT 18/01 A2991 RMK A01 T01830009  RH  031%=      5-min Rain = 0
KVA1 200159Z 25004KT 18/01 A2991 RMK A01 T01820010  RH  031%=      5-min Rain = 0
KVA1 200200Z 24004KT 18/01 A2991 RMK A01 T01820010  RH  031%=      5-min Rain = 0
KVA1 200201Z 25004KT 18/01 A2991 RMK A01 T01820010  RH  031%=      5-min Rain = 0
KVA1 200202Z 24004KT 18/01 A2991 RMK A01 T01810010  RH  032%=      5-min Rain = 0
KVA1 200203Z 25004KT 18/01 A2991 RMK A01 T01810010  RH  032%=      5-min Rain = 0
KVA1 200204Z 24004KT 18/01 A2991 RMK A01 T01800010  RH  032%=      5-min Rain = 0
KVA1 200205Z 24004KT 18/01 A2991 RMK A01 T01800009  RH  032%=      5-min Rain = 0
KVA1 200206Z 25004KT 18/01 A2991 RMK A01 T01790009  RH  032%=      5-min Rain = 0
KVA1 200207Z 25003KT 18/01 A2991 RMK A01 T01780009  RH  032%=      5-min Rain = 0
KVA1 200208Z 26003KT 18/01 A2991 RMK A01 T01770009  RH  032%=      5-min Rain = 0
KVA1 200209Z 26003KT 18/01 A2991 RMK A01 T01760009  RH  032%=      5-min Rain = 0
KVA1 200210Z 26004KT 18/01 A2991 RMK A01 T01750009  RH  033%=      5-min Rain = 0
KVA1 200211Z 27003KT 17/01 A2991 RMK A01 T01740009  RH  033%=      5-min Rain = 0
KVA1 200212Z 26003KT 17/01 A2991 RMK A01 T01740009  RH  033%=      5-min Rain = 0
KVA1 200213Z 26004KT 17/01 A2991 RMK A01 T01730009  RH  033%=      5-min Rain = 0
KVA1 200214Z 26003KT 17/01 A2992 RMK A01 T01730009  RH  033%=      5-min Rain = 0
KVA1 200215Z 27003KT 17/01 A2992 RMK A01 T01720008  RH  033%=      5-min Rain = 0
KVA1 200216Z 27003KT 17/01 A2992 RMK A01 T01720009  RH  033%=      5-min Rain = 0
KVA1 200217Z 27003KT 17/01 A2992 RMK A01 T01710008  RH  033%=      5-min Rain = 0
KVA1 200218Z 28004KT 17/01 A2992 RMK A01 T01710008  RH  033%=      5-min Rain = 0
KVA1 200219Z 28004KT 17/01 A2992 RMK A01 T01710008  RH  033%=      5-min Rain = 0
KVA1 200220Z 28004KT 17/01 A2992 RMK A01 T01710008  RH  033%=      5-min Rain = 0
KVA1 200221Z 28004KT 17/01 A2992 RMK A01 T01710008  RH  033%=      5-min Rain = 0
KVA1 200222Z 28004KT 17/01 A2992 RMK A01 T01710008  RH  033%=      5-min Rain = 0
KVA1 200223Z 27004KT 17/01 A2992 RMK A01 T01710009  RH  033%=      5-min Rain = 0
KVA1 200224Z 27004KT 17/01 A2992 RMK A01 T01710009  RH  033%=      5-min Rain = 0
KVA1 200225Z 27004KT 17/01 A2992 RMK A01 T01710009  RH  033%=      5-min Rain = 0
KVA1 200226Z 27004KT 17/01 A2992 RMK A01 T01710008  RH  033%=      5-min Rain = 0
KVA1 200227Z 27004KT 17/01 A2992 RMK A01 T01710008  RH  033%=      5-min Rain = 0
KVA1 200228Z 27004KT 17/01 A2992 RMK A01 T01710008  RH  033%=      5-min Rain = 0
KVA1 200229Z 27004KT 17/01 A2991 RMK A01 T01710008  RH  033%=      5-min Rain = 0
KVA1 200230Z 26004KT 17/01 A2991 RMK A01 T01710009  RH  033%=      5-min Rain = 0
KVA1 200231Z 26004KT 17/01 A2991 RMK A01 T01710009  RH  033%=      5-min Rain = 0
KVA1 200232Z 26004KT 17/01 A2991 RMK A01 T01710010  RH  034%=      5-min Rain = 0
KVA1 200233Z 26004KT 17/01 A2991 RMK A01 T01710010  RH  034%=      5-min Rain = 0
KVA1 200234Z 26004KT 17/01 A2992 RMK A01 T01710010  RH  034%=      5-min Rain = 0
KVA1 200235Z 25005KT 17/01 A2992 RMK A01 T01710010  RH  034%=      5-min Rain = 0
KVA1 200236Z 25005KT 17/01 A2992 RMK A01 T01710011  RH  034%=      5-min Rain = 0
KVA1 200237Z 24006KT 17/01 A2992 RMK A01 T01700011  RH  034%=      5-min Rain = 0
KVA1 200238Z 24006KT 17/01 A2992 RMK A01 T01700012  RH  034%=      5-min Rain = 0
KVA1 200239Z 24006KT 17/01 A2992 RMK A01 T01700013  RH  035%=      5-min Rain = 0
KVA1 200240Z 23006KT 17/01 A2992 RMK A01 T01700013  RH  035%=      5-min Rain = 0
KVA1 200241Z 23006KT 17/01 A2992 RMK A01 T01710014  RH  035%=      5-min Rain = 0
KVA1 200242Z 23006KT 17/01 A2992 RMK A01 T01710014  RH  035%=      5-min Rain = 0
KVA1 200243Z 23006KT 17/02 A2992 RMK A01 T01720015  RH  035%=      5-min Rain = 0
KVA1 200244Z 23007KT 17/02 A2992 RMK A01 T01720015  RH  035%=      5-min Rain = 0
KVA1 200245Z 24006KT 17/02 A2992 RMK A01 T01730016  RH  035%=      5-min Rain = 0
KVA1 200246Z 24006KT 17/02 A2992 RMK A01 T01740016  RH  035%=      5-min Rain = 0
KVA1 200247Z 24007KT 17/02 A2992 RMK A01 T01740017  RH  035%=      5-min Rain = 0
KVA1 200248Z 24008KT 18/02 A2992 RMK A01 T01750019  RH  035%=      5-min Rain = 0
KVA1 200249Z 24008KT 18/02 A2992 RMK A01 T01780022  RH  035%=      5-min Rain = 0
KVA1 200250Z 24009KT 18/03 A2993 RMK A01 T01810026  RH  035%=      5-min Rain = 0
KVA1 200251Z 24008KT 18/03 A2993 RMK A01 T01840028  RH  035%=      5-min Rain = 0
KVA1 200252Z 24008KT 19/03 A2993 RMK A01 T01860031  RH  035%=      5-min Rain = 0
KVA1 200253Z 25010KT 19/03 A2993 RMK A01 T01880032  RH  036%=      5-min Rain = 0
KVA1 200254Z 25009KT 19/04 A2993 RMK A01 T01890037  RH  037%=      5-min Rain = 0
KVA1 200255Z 25008KT 19/05 A2993 RMK A01 T01900046  RH  039%=      5-min Rain = 0
KVA1 200256Z 26008KT 19/05 A2993 RMK A01 T01890050  RH  040%=      5-min Rain = 0
KVA1 200257Z 26008KT 19/06 A2994 RMK A01 T01880056  RH  042%=      5-min Rain = 0
KVA1 200258Z 26008KT 19/06 A2994 RMK A01 T01870059  RH  043%=      5-min Rain = 0
KVA1 200259Z 25008KT 19/06 A2994 RMK A01 T01850063  RH  045%=      5-min Rain = 0
KVA1 200300Z 26009KT 18/07 A2994 RMK A01 T01840067  RH  046%=      5-min Rain = 0
KVA1 200301Z 25009KT 18/07 A2994 RMK A01 T01820068  RH  047%=      5-min Rain = 0
KVA1 200302Z 26009KT 18/07 A2994 RMK A01 T01820071  RH  048%=      5-min Rain = 0
KVA1 200303Z 26008KT 18/07 A2994 RMK A01 T01810070  RH  048%=      5-min Rain = 0
KVA1 200304Z 25008KT 18/07 A2994 RMK A01 T01810073  RH  050%=      5-min Rain = 0
KVA1 200305Z 25007KT 18/08 A2995 RMK A01 T01790079  RH  052%=      5-min Rain = 0
KVA1 200306Z 25006KT 18/08 A2995 RMK A01 T01760084  RH  055%=      5-min Rain = 0
KVA1 200307Z 26007KT 17/09 A2995 RMK A01 T01730088  RH  057%=      5-min Rain = 0
KVA1 200308Z 27010KT 17/09 A2995 RMK A01 T01700091  RH  060%=      5-min Rain = 0
KVA1 200309Z 27011KT 17/09 A2995 RMK A01 T01690086  RH  058%=      5-min Rain = 0
KVA1 200310Z 27010KT 17/09 A2995 RMK A01 T01700086  RH  058%=      5-min Rain = 0
KVA1 200311Z 27009KT 17/09 A2995 RMK A01 T01710087  RH  058%=      5-min Rain = 0
KVA1 200312Z 27010KT 17/09 A2995 RMK A01 T01710088  RH  058%=      5-min Rain = 0
KVA1 200313Z 28010KT 17/09 A2995 RMK A01 T01710089  RH  059%=      5-min Rain = 0
KVA1 200314Z 27009KT 17/09 A2995 RMK A01 T01690093  RH  061%=      5-min Rain = 0
KVA1 200315Z 27009KT 17/10 A2995 RMK A01 T01670097  RH  063%=      5-min Rain = 0
KVA1 200316Z 27010KT 17/10 A2995 RMK A01 T01660100  RH  065%=      5-min Rain = 0
KVA1 200317Z 27009KT 16/10 A2995 RMK A01 T01640102  RH  066%=      5-min Rain = 0
KVA1 200318Z 26010KT 16/10 A2995 RMK A01 T01640102  RH  067%=      5-min Rain = 0
KVA1 200319Z 26009KT 17/10 A2995 RMK A01 T01650104  RH  067%=      5-min Rain = 0
KVA1 200320Z 26009KT 17/11 A2995 RMK A01 T01650107  RH  068%=      5-min Rain = 0
KVA1 200321Z 26012KT 17/11 A2996 RMK A01 T01650106  RH  068%=      5-min Rain = 0.01
KVA1 200322Z 26011KT 17/10 A2996 RMK A01 T01660103  RH  067%=      5-min Rain = 0
KVA1 200323Z 26014KT 17/10 A2996 RMK A01 T01680100  RH  064%=      5-min Rain = 0
KVA1 200324Z 26013KT 17/10 A2996 RMK A01 T01710098  RH  062%=      5-min Rain = 0
KVA1 200325Z 26015KT 17/10 A2996 RMK A01 T01720097  RH  061%=      5-min Rain = 0
KVA1 200326Z 26013KT 17/10 A2997 RMK A01 T01730099  RH  062%=      5-min Rain = 0
KVA1 200327Z 26012KT 17/10 A2997 RMK A01 T01720099  RH  062%=      5-min Rain = 0
KVA1 200328Z 25012KT 17/10 A2997 RMK A01 T01700100  RH  063%=      5-min Rain = 0
KVA1 200329Z 25013KT 17/10 A2998 RMK A01 T01680100  RH  064%=      5-min Rain = 0
KVA1 200330Z 25014KT 17/10 A2998 RMK A01 T01670098  RH  064%=      5-min Rain = 0
KVA1 200331Z 26013KT 17/10 A2999 RMK A01 T01670095  RH  063%=      5-min Rain = 0
KVA1 200332Z 25012KT 17/09 A2999 RMK A01 T01660092  RH  061%=      5-min Rain = 0.01
KVA1 200333Z 25013KT 17/09 A2999 RMK A01 T01650093  RH  063%=      5-min Rain = 0
KVA1 200334Z 25016KT 16/09 A2999 RMK A01 T01630092  RH  063%=      5-min Rain = 0
KVA1 200335Z 25013KT 16/09 A2999 RMK A01 T01630092  RH  063%=      5-min Rain = 0
KVA1 200336Z 25013KT 16/09 A2999 RMK A01 T01610094  RH  065%=      5-min Rain = 0
KVA1 200337Z 25012KT 16/10 A2999 RMK A01 T01600095  RH  065%=      5-min Rain = 0
KVA1 200338Z 26015G21KT 16/10 A2999 RMK A01 T01580097  RH  067%=      5-min Rain = 0
KVA1 200339Z 25017KT 16/10 A2999 RMK A01 T01560096  RH  067%=      5-min Rain = 0
KVA1 200340Z 26014KT 16/10 A30 RMK A01 T01550097  RH  068%=      5-min Rain = 0
KVA1 200341Z 26014KT 15/10 A30 RMK A01 T01530100  RH  070%=      5-min Rain = 0.01
KVA1 200342Z 26016G21KT 15/10 A30 RMK A01 T01510101  RH  072%=      5-min Rain = 0
KVA1 200343Z 26014KT 15/10 A30 RMK A01 T01500102  RH  073%=      5-min Rain = 0
KVA1 200344Z 26015KT 15/11 A3001 RMK A01 T01490105  RH  075%=      5-min Rain = 0
KVA1 200345Z 26016KT 15/11 A3001 RMK A01 T01470106  RH  076%=      5-min Rain = 0
KVA1 200346Z 26015KT 15/11 A3001 RMK A01 T01470108  RH  078%=      5-min Rain = 0
KVA1 200347Z 26015KT 15/11 A3001 RMK A01 T01460110  RH  079%=      5-min Rain = 0
KVA1 200348Z 26014KT 15/11 A3001 RMK A01 T01450111  RH  080%=      5-min Rain = 0
KVA1 200349Z 26013KT 15/11 A3001 RMK A01 T01450112  RH  081%=      5-min Rain = 0
KVA1 200350Z 26012KT 15/11 A3001 RMK A01 T01450113  RH  081%=      5-min Rain = 0
KVA1 200351Z 26012KT 14/11 A30 RMK A01 T01440114  RH  082%=      5-min Rain = 0.01
KVA1 200352Z 26013KT 14/11 A30 RMK A01 T01430114  RH  082%=      5-min Rain = 0
KVA1 200353Z 26011KT 14/12 A30 RMK A01 T01430115  RH  083%=      5-min Rain = 0
KVA1 200354Z 26013KT 14/12 A30 RMK A01 T01420116  RH  084%=      5-min Rain = 0
KVA1 200355Z 26014KT 14/12 A30 RMK A01 T01420115  RH  084%=      5-min Rain = 0.01
KVA1 200356Z 26015KT 14/12 A30 RMK A01 T01410116  RH  085%=      5-min Rain = 0.01
KVA1 200357Z 26014KT 14/12 A3001 RMK A01 T01410117  RH  085%=      5-min Rain = 0.01
KVA1 200358Z 26014KT 14/12 A3001 RMK A01 T01400118  RH  086%=      5-min Rain = 0
KVA1 200359Z 25011G16KT 14/12 A3001 RMK A01 T01400119  RH  087%=      5-min Rain = 0.01
KVA1 200400Z 26013G18KT 14/12 A30 RMK A01 T01400120  RH  088%=      5-min Rain = 0.01
KVA1 200401Z 26012KT 14/12 A30 RMK A01 T01400120  RH  088%=      5-min Rain = 0
KVA1 200402Z 27013KT 14/12 A30 RMK A01 T01400121  RH  089%=      5-min Rain = 0.01
KVA1 200403Z 27012KT 14/12 A30 RMK A01 T01400122  RH  089%=      5-min Rain = 0
KVA1 200404Z 27012KT 14/12 A30 RMK A01 T01400123  RH  090%=      5-min Rain = 0.01
KVA1 200405Z 27009KT 14/12 A30 RMK A01 T01400123  RH  090%=      5-min Rain = 0
KVA1 200406Z 28009KT 14/12 A2999 RMK A01 T01400124  RH  090%=      5-min Rain = 0.01
KVA1 200407Z 29011KT 14/12 A2999 RMK A01 T01400124  RH  090%=      5-min Rain = 0
KVA1 200408Z 29011G16KT 14/12 A2999 RMK A01 T01400124  RH  090%=      5-min Rain = 0
KVA1 200409Z 28012KT 14/12 A2999 RMK A01 T01400123  RH  090%=      5-min Rain = 0.01
KVA1 200410Z 27008KT 14/12 A30 RMK A01 T01400124  RH  090%=      5-min Rain = 0
KVA1 200411Z 26010G15KT 14/12 A30 RMK A01 T01400124  RH  090%=      5-min Rain = 0
KVA1 200412Z 26010KT 14/12 A30 RMK A01 T01400124  RH  090%=      5-min Rain = 0
KVA1 200413Z 27009KT 14/12 A30 RMK A01 T01400124  RH  090%=      5-min Rain = 0
KVA1 200414Z 27008KT 14/12 A30 RMK A01 T01400123  RH  089%=      5-min Rain = 0
KVA1 200415Z 28006KT 14/12 A2999 RMK A01 T01400123  RH  089%=      5-min Rain = 0
KVA1 200416Z 28007G12KT 14/12 A2999 RMK A01 T01400123  RH  089%=      5-min Rain = 0.01
KVA1 200417Z 29009KT 14/12 A2999 RMK A01 T01400121  RH  088%=      5-min Rain = 0
KVA1 200418Z 29007KT 14/12 A2998 RMK A01 T01410121  RH  088%=      5-min Rain = 0
KVA1 200419Z 30008KT 14/12 A2998 RMK A01 T01410120  RH  087%=      5-min Rain = 0
KVA1 200420Z 30007KT 14/12 A2998 RMK A01 T01410119  RH  087%=      5-min Rain = 0
KVA1 200421Z 31007KT 14/12 A2997 RMK A01 T01410119  RH  086%=      5-min Rain = 0
KVA1 200422Z 32006KT 14/12 A2997 RMK A01 T01410119  RH  086%=      5-min Rain = 0
KVA1 200423Z 34006KT 14/12 A2996 RMK A01 T01410119  RH  087%=      5-min Rain = 0
KVA1 200424Z 34006KT 14/12 A2996 RMK A01 T01400119  RH  087%=      5-min Rain = 0
KVA1 200425Z 34006KT 14/12 A2996 RMK A01 T01400119  RH  087%=      5-min Rain = 0.01
KVA1 200426Z 35004KT 14/12 A2996 RMK A01 T01400119  RH  087%=      5-min Rain = 0
KVA1 200427Z 03004KT 14/12 A2996 RMK A01 T01390119  RH  088%=      5-min Rain = 0
KVA1 200428Z 05003KT 14/12 A2996 RMK A01 T01390120  RH  088%=      5-min Rain = 0
KVA1 200429Z 07003KT 14/12 A2996 RMK A01 T01390120  RH  089%=      5-min Rain = 0
KVA1 200430Z 10004KT 14/12 A2996 RMK A01 T01380120  RH  089%=      5-min Rain = 0
KVA1 200431Z 12005KT 14/12 A2996 RMK A01 T01380121  RH  089%=      5-min Rain = 0
KVA1 200432Z 13007KT 14/12 A2996 RMK A01 T01380122  RH  090%=      5-min Rain = 0
KVA1 200433Z 13007KT 14/12 A2996 RMK A01 T01380123  RH  091%=      5-min Rain = 0
KVA1 200434Z 14008KT 14/12 A2996 RMK A01 T01370124  RH  092%=      5-min Rain = 0
KVA1 200435Z 13009KT 14/13 A2996 RMK A01 T01370125  RH  092%=      5-min Rain = 0
KVA1 200436Z 14009KT 14/13 A2996 RMK A01 T01370125  RH  093%=      5-min Rain = 0
KVA1 200437Z 14009KT 14/13 A2996 RMK A01 T01370126  RH  093%=      5-min Rain = 0
KVA1 200438Z 14010KT 14/13 A2996 RMK A01 T01370126  RH  093%=      5-min Rain = 0
KVA1 200439Z 14011KT 14/13 A2996 RMK A01 T01360126  RH  093%=      5-min Rain = 0
KVA1 200440Z 13008KT 14/13 A2996 RMK A01 T01360125  RH  093%=      5-min Rain = 0
KVA1 200441Z 11006KT 14/13 A2996 RMK A01 T01350125  RH  093%=      5-min Rain = 0
KVA1 200442Z 10006KT 14/13 A2995 RMK A01 T01360125  RH  093%=      5-min Rain = 0.01
KVA1 200443Z 11005KT 14/13 A2995 RMK A01 T01350125  RH  093%=      5-min Rain = 0
KVA1 200444Z 12006KT 14/13 A2995 RMK A01 T01350125  RH  093%=      5-min Rain = 0
KVA1 200445Z 15007KT 14/13 A2995 RMK A01 T01350125  RH  094%=      5-min Rain = 0
KVA1 200446Z 16007KT 14/13 A2996 RMK A01 T01350126  RH  094%=      5-min Rain = 0.01
KVA1 200447Z 16006KT 14/13 A2996 RMK A01 T01350126  RH  094%=      5-min Rain = 0
KVA1 200448Z 13005KT 14/13 A2996 RMK A01 T01350126  RH  094%=      5-min Rain = 0
KVA1 200449Z 11004KT 14/13 A2995 RMK A01 T01350126  RH  094%=      5-min Rain = 0
KVA1 200450Z 10004KT 13/13 A2995 RMK A01 T01340125  RH  094%=      5-min Rain = 0
KVA1 200451Z 09004KT 13/13 A2995 RMK A01 T01340125  RH  094%=      5-min Rain = 0
KVA1 200452Z 10003KT 13/13 A2995 RMK A01 T01340125  RH  094%=      5-min Rain = 0
KVA1 200453Z 12003KT 13/12 A2995 RMK A01 T01340124  RH  094%=      5-min Rain = 0
KVA1 200454Z 14003KT 13/12 A2996 RMK A01 T01340124  RH  094%=      5-min Rain = 0
KVA1 200455Z 16003KT 13/13 A2996 RMK A01 T01340125  RH  094%=      5-min Rain = 0
KVA1 200456Z 19002KT 14/13 A2996 RMK A01 T01350125  RH  094%=      5-min Rain = 0
KVA1 200457Z 20002KT 14/13 A2996 RMK A01 T01350126  RH  094%=      5-min Rain = 0
KVA1 200458Z 23002KT 14/13 A2996 RMK A01 T01350126  RH  094%=      5-min Rain = 0
KVA1 200459Z 24002KT 14/13 A2996 RMK A01 T01350126  RH  094%=      5-min Rain = 0
KVA1 200500Z 24002KT 14/13 A2996 RMK A01 T01350126  RH  094%=      5-min Rain = 0
KVA1 200501Z 24001KT 14/13 A2996 RMK A01 T01350126  RH  094%=      5-min Rain = 0
KVA1 200502Z 23001KT 14/13 A2996 RMK A01 T01350126  RH  094%=      5-min Rain = 0
KVA1 200503Z 25003KT 14/13 A2996 RMK A01 T01350126  RH  094%=      5-min Rain = 0
KVA1 200504Z 27004KT 14/13 A2996 RMK A01 T01350126  RH  094%=      5-min Rain = 0
KVA1 200505Z 27005KT 14/13 A2996 RMK A01 T01350127  RH  095%=      5-min Rain = 0
KVA1 200506Z 26003KT 14/13 A2996 RMK A01 T01350127  RH  095%=      5-min Rain = 0
KVA1 200507Z 26004KT 14/13 A2997 RMK A01 T01350127  RH  095%=      5-min Rain = 0
KVA1 200508Z 26003KT 14/13 A2997 RMK A01 T01350127  RH  095%=      5-min Rain = 0
KVA1 200509Z 26004KT 13/13 A2997 RMK A01 T01340126  RH  095%=      5-min Rain = 0
KVA1 200510Z 27003KT 14/13 A2997 RMK A01 T01350127  RH  095%=      5-min Rain = 0
KVA1 200511Z 29003KT 14/13 A2996 RMK A01 T01350127  RH  095%=      5-min Rain = 0
KVA1 200512Z 29003KT 14/13 A2996 RMK A01 T01350127  RH  095%=      5-min Rain = 0.01
KVA1 200513Z 29003KT 14/13 A2996 RMK A01 T01350128  RH  095%=      5-min Rain = 0
KVA1 200514Z 29003KT 14/13 A2996 RMK A01 T01350127  RH  095%=      5-min Rain = 0
KVA1 200515Z 31002KT 14/13 A2996 RMK A01 T01350128  RH  095%=      5-min Rain = 0
KVA1 200516Z 34002KT 14/13 A2996 RMK A01 T01350128  RH  095%=      5-min Rain = 0
KVA1 200517Z 03002KT 14/13 A2995 RMK A01 T01350128  RH  095%=      5-min Rain = 0
KVA1 200518Z 05002KT 14/13 A2995 RMK A01 T01350128  RH  095%=      5-min Rain = 0
KVA1 200519Z 05003KT 14/13 A2995 RMK A01 T01350128  RH  096%=      5-min Rain = 0
KVA1 200520Z 03002KT 14/13 A2995 RMK A01 T01350128  RH  096%=      5-min Rain = 0
KVA1 200521Z 03002KT 14/13 A2995 RMK A01 T01350128  RH  096%=      5-min Rain = 0
KVA1 200522Z 01001KT 14/13 A2995 RMK A01 T01350129  RH  096%=      5-min Rain = 0
KVA1 200523Z 33001KT 14/13 A2995 RMK A01 T01350129  RH  096%=      5-min Rain = 0
KVA1 200524Z 32001KT 14/13 A2996 RMK A01 T01350129  RH  096%=      5-min Rain = 0
KVA1 200525Z 30002KT 14/13 A2996 RMK A01 T01350128  RH  096%=      5-min Rain = 0
KVA1 200526Z 29003KT 14/13 A2996 RMK A01 T01350128  RH  096%=      5-min Rain = 0
KVA1 200527Z 29003KT 13/13 A2996 RMK A01 T01340128  RH  096%=      5-min Rain = 0
KVA1 200528Z 29003KT 13/13 A2996 RMK A01 T01340128  RH  096%=      5-min Rain = 0
KVA1 200529Z 29003KT 13/13 A2996 RMK A01 T01340128  RH  096%=      5-min Rain = 0
KVA1 200530Z 29003KT 13/13 A2995 RMK A01 T01340128  RH  096%=      5-min Rain = 0
KVA1 200531Z 29002KT 13/13 A2995 RMK A01 T01340128  RH  096%=      5-min Rain = 0
KVA1 200532Z 27001KT 13/13 A2995 RMK A01 T01340128  RH  096%=      5-min Rain = 0
KVA1 200533Z 25001KT 13/13 A2995 RMK A01 T01340128  RH  096%=      5-min Rain = 0
KVA1 200534Z 25000KT 13/13 A2995 RMK A01 T01340128  RH  096%=      5-min Rain = 0
KVA1 200535Z 00000KT 13/13 A2995 RMK A01 T01340128  RH  096%=      5-min Rain = 0
KVA1 200536Z 17001KT 13/13 A2995 RMK A01 T01340127  RH  096%=      5-min Rain = 0
KVA1 200537Z 17002KT 13/13 A2995 RMK A01 T01340128  RH  096%=      5-min Rain = 0
KVA1 200538Z 17002KT 14/13 A2995 RMK A01 T01350128  RH  096%=      5-min Rain = 0
KVA1 200539Z 17002KT 14/13 A2995 RMK A01 T01350128  RH  096%=      5-min Rain = 0
KVA1 200540Z 17002KT 13/13 A2995 RMK A01 T01340128  RH  096%=      5-min Rain = 0
KVA1 200541Z 17002KT 14/13 A2995 RMK A01 T01350128  RH  096%=      5-min Rain = 0
KVA1 200542Z 18002KT 14/13 A2995 RMK A01 T01350128  RH  096%=      5-min Rain = 0
KVA1 200543Z 20002KT 14/13 A2995 RMK A01 T01350129  RH  096%=      5-min Rain = 0
KVA1 200544Z 22002KT 14/13 A2995 RMK A01 T01350129  RH  096%=      5-min Rain = 0
KVA1 200545Z 22001KT 14/13 A2995 RMK A01 T01360130  RH  096%=      5-min Rain = 0
KVA1 200546Z 25001KT 14/13 A2995 RMK A01 T01350129  RH  096%=      5-min Rain = 0
KVA1 200547Z 25001KT 14/13 A2996 RMK A01 T01350129  RH  096%=      5-min Rain = 0
KVA1 200548Z 24002KT 14/13 A2996 RMK A01 T01360129  RH  096%=      5-min Rain = 0
KVA1 200549Z 21002KT 14/13 A2996 RMK A01 T01350129  RH  096%=      5-min Rain = 0
KVA1 200550Z 20002KT 14/13 A2996 RMK A01 T01350129  RH  096%=      5-min Rain = 0
KVA1 200551Z 20002KT 14/13 A2996 RMK A01 T01350129  RH  096%=      5-min Rain = 0
KVA1 200552Z 20002KT 14/13 A2996 RMK A01 T01350130  RH  096%=      5-min Rain = 0
KVA1 200553Z 21003KT 14/13 A2996 RMK A01 T01350130  RH  096%=      5-min Rain = 0
KVA1 200554Z 22003KT 14/13 A2996 RMK A01 T01360130  RH  096%=      5-min Rain = 0
KVA1 200555Z 23003KT 14/13 A2996 RMK A01 T01350130  RH  096%=      5-min Rain = 0
KVA1 200556Z 24003KT 14/13 A2996 RMK A01 T01360130  RH  096%=      5-min Rain = 0
KVA1 200557Z 25003KT 14/13 A2995 RMK A01 T01360130  RH  097%=      5-min Rain = 0.01
KVA1 200558Z 25003KT 14/13 A2995 RMK A01 T01350130  RH  097%=      5-min Rain = 0
KVA1 200559Z 24005KT 14/13 A2996 RMK A01 T01360130  RH  097%=      5-min Rain = 0

Page generated in 0.0722 seconds.